[{"header": {"dx": 0.06612293990616946, "dy": 0.0552356325346848, "nx": 98, "ny": 59, "la1": 35.046912555036876, "la2": 31.78801023549047, "lo1": -121.43107172385933, "lo2": -114.95102361305473, "refTime": "2026042012", "parameterCategory": 1, "parameterNumber": 2}, "data": [-1.07, -1.19, -1.19, -1.08, -2.22, -2.86, -3.49, -3.79, -3.79, -4.12, -4.37, -4.37, -2.5, -2.5, -2.8, -2.5, -2.5, -2.21, -2.15, -1.49, -0.66, -0.0, -0.0, -0.0, -0.0, -1.7, -1.63, -2.4, -2.21, -2.97, -6.7, -4.92, 4.92, 4.47, 3.58, 2.24, 3.13, 3.13, 2.53, 1.73, -0.0, 1.32, 3.72, 4.8, 5.36, 7.15, 8.05, 7.6, 7.54, 7.31, 5.95, 5.58, 5.43, 5.05, 5.2, 5.6, 5.75, 6.13, 5.75, 5.81, 5.7, 4.92, 4.66, 3.35, 2.86, 3.83, 5.75, 6.79, 8.36, 9.81, 10.69, 9.77, 9.39, 8.38, 7.63, 6.6, 6.79, 8.38, 9.83, 8.49, 3.93, -0.0, -1.8, -3.35, -2.0, -0.0, 1.6, 1.13, 4.24, 4.38, 4.84, 5.06, 4.87, 4.74, 4.89, 5.4, 5.2, 4.84, -0.54, -0.61, -0.55, -1.08, -1.76, -2.22, -3.49, -3.79, -3.79, -3.48, -3.78, -2.53, -2.15, -1.88, -1.9, -1.9, -2.5, -2.21, -2.15, -1.8, -1.49, -0.73, -0.0, 1.25, -0.0, -0.0, -3.2, -2.68, -3.4, -3.35, -4.56, -6.26, -4.92, 5.36, 5.36, 4.47, 4.47, 4.47, 5.94, 2.69, 2.39, 4.96, 6.8, 5.36, 5.36, 7.1, 8.05, 7.6, 6.88, 6.57, 6.57, 6.99, 7.12, 6.28, 5.59, 5.4, 5.37, 6.4, 6.57, 6.16, 5.73, 4.92, 3.13, 2.54, 2.8, 3.74, 5.51, 6.94, 8.44, 9.8, 10.28, 8.94, 8.94, 8.49, 7.01, 6.2, 7.45, 8.38, 9.83, 8.49, 3.93, -0.0, -1.8, -3.35, -2.0, -0.0, 1.6, 1.13, 4.24, 4.38, 4.84, 5.06, 4.87, 4.74, 4.89, 5.4, 5.2, 4.84, -0.54, -0.61, -0.55, -0.55, -1.11, -1.58, -3.15, -3.79, -3.79, -3.79, -3.78, -3.48, -1.88, -1.88, -1.88, -1.88, -2.5, -2.5, -1.88, -2.15, -1.8, -2.07, -0.79, -0.0, 1.32, 0.76, -0.0, -2.73, -3.2, -3.17, -3.52, -2.6, -2.2, -0.0, 5.36, 6.26, 6.71, 7.15, 8.05, 8.94, 5.69, 4.34, 4.47, 5.81, 6.71, 7.15, 7.15, 6.71, 6.2, 6.45, 6.88, 7.74, 8.43, 7.52, 5.29, 4.4, 4.6, 5.6, 6.57, 6.51, 5.2, 3.97, 3.58, 3.13, 3.13, 4.02, 5.81, 7.15, 7.6, 8.49, 8.91, 9.8, 9.39, 7.52, 4.24, 5.51, 7.45, 10.28, 10.73, 9.39, 5.81, -0.0, -4.0, -3.95, -4.34, -0.0, 1.8, 2.53, 5.81, 5.09, 7.2, 6.01, 5.1, 4.87, 5.06, 4.11, 4.4, 4.8, -0.54, -0.61, -0.55, -0.55, -0.57, -0.57, -1.8, -3.15, -4.12, -4.37, -4.37, -4.37, -2.21, -1.88, -1.88, -1.61, -1.61, -1.9, -1.88, -1.84, -1.8, -1.49, -1.33, -1.27, -0.0, -0.0, 1.47, 1.98, -0.0, -3.52, -2.82, -2.6, -0.96, -0.0, 3.6, 7.07, 7.6, 8.49, 8.24, 8.05, 4.77, 3.32, 3.97, 5.31, 7.15, 7.15, 6.71, 6.26, 5.81, 6.26, 6.71, 8.05, 8.05, 7.15, 4.38, 3.6, 3.95, 4.85, 5.75, 5.75, 4.87, 4.43, 4.47, 3.58, 3.58, 4.34, 5.7, 6.51, 6.85, 7.76, 9.11, 9.36, 8.9, 5.69, 3.15, 4.43, 6.7, 10.68, 11.93, 8.48, 0.0, -4.02, -4.02, -4.47, -4.47, -4.47, 4.02, 4.47, 6.79, 8.21, 8.82, 6.32, 4.83, 4.42, 3.79, 3.58, 4.82, 5.4, -0.0, -0.0, -0.55, -0.55, -0.57, -0.57, -0.59, -1.8, -3.48, -4.12, -4.37, -4.93, -3.07, -2.5, -1.9, -1.58, -1.9, -1.61, -2.21, -2.51, -2.07, -1.41, -0.73, -0.73, -1.35, -1.25, -0.0, 2.82, 2.97, -0.0, -2.0, -3.07, -4.75, -1.23, 2.68, 3.83, 6.23, 8.38, 5.81, 4.47, 2.48, 2.51, 3.48, 4.09, 4.24, 5.73, 5.81, 5.29, 5.73, 6.26, 7.15, 7.97, 7.06, 5.81, 4.38, 3.53, 3.58, 4.02, 4.41, 4.87, 4.47, 4.47, 4.02, 3.51, 3.47, 4.47, 4.92, 4.92, 6.02, 6.94, 8.14, 9.24, 8.43, 5.81, 1.49, 2.04, 4.46, 8.68, 11.87, 0.0, -2.53, -1.9, -3.51, -4.43, -4.15, -1.8, 1.6, 4.54, 7.15, 8.47, 7.51, 6.18, 5.06, 2.79, 2.23, 4.66, 5.29, 6.02, -0.0, -0.0, -0.0, -0.0, -0.0, -0.0, -0.0, -0.59, -1.33, -2.41, -3.84, -4.12, -2.86, -2.5, -2.4, -2.0, -1.86, -1.86, -2.15, -3.07, -3.14, -2.23, -1.41, -1.1, -2.83, -2.97, -0.0, 1.62, 3.32, 2.82, -0.0, -2.3, -6.13, -5.58, 2.53, 3.04, 3.97, 5.77, 4.47, -0.0, -1.6, 1.32, 4.21, 5.3, 4.11, 3.16, 3.07, 4.02, 4.98, 5.94, 7.06, 7.06, 6.17, 4.92, 4.02, 4.92, 4.47, 4.02, 4.02, 5.36, 4.47, 3.58, 3.51, 3.74, 5.51, 6.36, 6.26, 4.24, 3.47, 4.46, 6.64, 7.03, 6.32, 5.2, 2.4, 1.99, 3.77, 6.01, 8.77, -5.36, -3.14, -1.13, -2.07, -2.84, -2.0, -0.67, 0.83, 4.74, 6.77, 6.95, 6.18, 6.55, 4.43, 0.0, -3.48, 4.09, 5.59, 6.45, -0.0, -0.0, -0.0, -0.0, -0.0, -0.0, -0.0, -0.0, -0.0, -0.61, -1.6, -2.07, -1.4, -1.88, -1.9, -2.4, -2.17, -2.54, -2.8, -3.39, -2.5, -2.5, -2.53, -3.16, -3.22, -2.98, -1.41, -0.0, 1.27, 1.55, -0.0, -0.82, -4.14, -3.97, 4.02, 3.13, 3.58, 5.29, 6.79, -0.0, -2.6, -1.13, 2.0, 6.01, 7.27, 6.18, 5.3, 3.16, 3.58, 4.8, 6.51, 6.17, 5.7, 4.66, 4.09, 4.98, 4.38, 3.6, 4.15, 3.97, 3.58, 2.68, 3.2, 5.37, 7.2, 7.96, 7.67, 2.6, 2.8, 3.97, 5.32, 4.87, 3.6, 3.48, 5.36, 4.11, 3.79, 2.84, 3.95, 5.09, -0.81, 0.0, 0.0, -1.44, -0.75, 0.0, 0.82, 3.25, 4.44, 4.68, 4.03, 5.2, -1.41, -5.81, -2.6, 3.93, 5.2, 6.57, -0.0, -0.0, -0.0, -0.0, -0.0, -0.0, -0.0, -0.0, -0.0, -0.0, -0.0, -0.61, -0.54, -0.0, -0.71, -1.9, -1.86, -2.8, -2.53, -0.0, -0.65, -1.61, -2.21, -2.91, -3.13, -3.58, -2.8, -1.26, 2.68, -0.0, -0.0, -0.0, -0.0, -0.0, 3.13, 1.58, 1.86, 3.58, 4.66, 2.23, -2.24, -1.79, 1.34, 2.0, 2.98, 4.83, 6.2, 7.36, 5.46, 5.06, 3.58, 5.2, 6.71, 4.43, 2.2, 3.16, 2.97, 2.6, 3.72, 2.91, 2.68, 2.24, 3.47, 5.4, 6.4, 6.82, 8.05, 7.15, 4.11, 4.89, 5.59, 5.16, 5.09, 6.36, 0.0, 0.0, 1.13, 2.53, 4.0, 7.06, 8.88, 2.06, 0.74, 0.0, 0.0, 0.0, 0.0, 1.22, 2.69, 4.75, 4.44, -0.89, -4.66, -5.4, 0.0, 3.79, 5.58, 6.16, -0.0, -0.0, -0.0, -0.0, -0.0, -0.0, -0.0, -0.0, -0.0, -0.0, -0.0, -0.53, -0.8, -0.0, -0.0, -0.0, -1.2, -2.21, -1.4, -0.85, -1.4, -1.33, -2.53, -3.32, -3.58, -2.6, -1.6, -1.6, -4.02, -2.8, -2.84, -2.53, 3.13, 2.68, 2.0, 1.24, 1.49, 2.23, 2.68, 1.9, -1.79, -1.6, -1.2, -0.63, 1.34, -0.0, 1.19, 6.14, 7.82, 8.85, 8.23, 4.47, -5.81, -6.0, -4.11, -3.48, 4.02, 4.47, 3.48, 2.54, 2.12, 4.02, 3.13, 6.26, 6.26, 6.26, 8.36, 8.49, 5.58, 3.97, 4.11, 5.09, 5.95, 4.29, 0.0, -2.21, -1.9, -0.85, 3.35, 6.45, 8.67, 5.21, 2.4, 2.31, 0.69, 0.0, -0.98, -1.4, 0.0, 0.0, -1.3, -3.72, -4.52, -3.16, 0.0, 3.93, 5.58, 4.84, -0.0, -0.0, -0.0, -0.0, -0.0, -0.0, -0.0, -0.0, -0.0, -0.0, -0.0, -0.76, -1.27, -3.16, 3.13, 3.13, 3.58, -3.58, -3.58, -2.21, -2.6, -2.23, -2.23, -3.04, -3.13, -2.6, -1.79, -2.24, -4.02, -4.02, -2.21, -1.58, 0.0, 0.0, 0.0, 0.95, 1.86, 1.58, 0.89, 2.24, -1.9, -1.86, -1.86, -1.86, -1.49, -1.79, 2.68, 2.98, 6.32, 8.94, 7.15, 1.52, -2.24, -2.6, -2.6, -2.54, -3.13, -4.47, 3.58, 5.2, 9.3, 9.67, 10.18, 9.39, 7.47, 4.0, 7.71, 9.29, 5.86, 3.63, 2.98, 4.43, 4.74, 3.22, 0.0, -1.9, -2.53, -1.98, 0.0, 4.47, 5.36, 5.37, 4.22, 3.72, 4.73, 4.09, 3.48, 3.16, 2.21, -0.0, -3.13, -3.49, -3.07, -2.0, 1.8, 4.66, 5.4, 4.98, -0.0, -0.0, -0.0, -0.0, -0.0, -0.0, -0.0, -0.0, -0.0, -0.0, -0.0, -0.87, -1.27, -4.0, -3.13, 0.0, 0.0, 0.0, 6.71, -0.0, -4.47, -3.13, -2.24, -2.24, -2.24, -2.24, -1.79, -1.79, -2.24, -2.4, -1.9, -1.26, -1.34, -1.34, -1.26, 0.0, 0.95, 0.0, -0.8, -1.74, -1.98, -2.23, -1.7, -2.8, -2.8, -1.79, -0.0, 2.21, 3.79, 2.6, 1.04, -0.0, -0.0, -0.0, -0.0, -1.84, -2.98, -3.13, 8.49, 2.54, 1.9, 3.68, 7.82, 10.79, 10.28, 7.21, 6.94, 7.47, 4.4, 2.15, 2.07, 3.72, 3.48, 3.16, 1.27, 0.0, -0.76, -2.53, -3.2, -3.13, -2.8, 0.0, 2.69, 7.68, 8.67, 7.6, 8.46, 7.57, 6.21, 4.02, 2.68, 0.76, 0.0, 0.0, 1.4, 4.47, 4.92, 4.66, -0.0, -0.0, -0.0, -0.0, -0.0, -0.0, -0.0, -0.0, -0.0, -0.0, -0.0, -0.0, -1.27, -4.0, -4.92, 0.0, 2.4, 3.79, 5.81, 5.51, 5.09, 2.68, 1.79, 1.79, 2.24, 2.24, 2.24, 2.24, 0.89, -1.34, -1.6, -0.95, -1.34, -1.34, -0.89, -0.63, -0.63, -1.2, -2.15, -2.5, -3.35, -4.02, -3.13, -3.58, -2.68, -0.57, -0.61, -0.0, -0.81, -2.46, -2.4, -1.2, -0.0, -0.0, 1.34, 2.52, 1.63, -0.0, -11.18, -1.71, -0.0, 3.18, 5.77, 6.7, 8.1, 6.67, 3.39, 2.28, -0.0, 5.36, 2.53, 2.53, 3.14, 2.86, 2.4, 3.2, 2.5, 2.21, 0.0, -2.6, -2.91, -2.86, -2.12, 7.87, 10.14, 10.73, 9.39, 9.39, 8.05, 6.71, 5.51, 3.6, 2.5, 2.6, 2.53, 4.92, -0.0, 4.02, -0.0, -0.0, -0.0, -0.0, -0.0, -0.0, -0.0, -0.0, -0.0, -0.0, -0.0, -0.0, -0.0, -2.0, -4.92, 5.36, 0.0, 5.2, 5.81, 5.81, 5.81, 5.81, 5.81, 5.36, 5.36, 5.36, 5.81, 5.81, 4.66, -0.0, -2.68, -2.24, -1.79, -2.24, -2.68, -2.24, -2.24, -2.68, -3.32, -3.32, -2.68, -3.13, -2.8, -1.58, -0.95, -1.49, -2.41, -3.45, -3.32, -4.6, -5.2, -6.5, -4.8, -2.28, -0.0, 1.26, 3.68, 7.34, 4.8, -2.97, -0.98, 1.92, 3.25, -0.0, -1.21, -2.92, -2.55, -0.92, 1.01, 2.28, 2.69, 2.0, 2.68, 2.24, 2.6, 3.32, 3.07, 2.5, 2.98, 0.0, -2.4, -2.5, -1.27, 0.0, 7.51, 10.32, 10.02, 8.97, 7.48, 8.01, 7.37, 3.83, 3.07, 3.07, 3.07, 4.24, -0.0, -3.13, -0.0, -0.0, -0.0, -0.0, -0.0, -0.0, -0.0, -0.0, -0.0, -0.0, -0.0, -0.0, -0.0, -0.0, -0.0, 4.92, 5.36, 4.11, 6.26, 6.71, 7.15, 6.71, 6.71, 6.71, 7.15, 6.71, 6.71, 6.26, 5.81, 5.36, 4.92, -2.68, -3.58, -2.0, -2.12, -2.24, -2.68, -2.68, -3.13, -3.07, -3.13, -2.68, -1.79, -2.68, 3.58, -3.16, -2.15, -3.2, -3.6, -3.58, -5.81, -7.01, -4.47, -4.02, -2.68, 1.79, 1.2, 5.31, 8.44, -0.0, -2.82, -0.0, -0.0, -1.25, -2.61, -4.17, -3.68, -0.7, 2.13, 4.0, 3.36, 1.04, 1.07, 1.98, 3.22, 3.13, 2.21, 2.21, 3.93, 5.21, 0.0, -1.74, -0.59, -0.64, 0.89, 6.01, 9.2, 8.3, 7.12, 7.85, 7.89, 5.09, 3.22, 3.22, 3.49, 3.6, 3.58, -3.13, -0.0, -0.0, -0.0, -0.0, -0.0, -0.0, -0.0, -0.0, -0.0, -0.0, -0.0, -0.0, -0.0, -0.0, -0.0, -0.0, 5.36, 5.81, 6.26, 6.26, 6.71, 6.71, 7.15, 7.15, 7.15, 7.15, 7.15, 6.71, 6.17, 5.7, 5.2, -3.48, -2.8, -2.53, -3.2, -3.58, -3.58, -2.24, -4.02, -2.24, -2.68, -4.47, -3.13, -1.79, 3.58, 4.02, -2.53, -2.0, -3.39, -3.9, -4.47, -3.82, -1.9, 0.0, 0.0, 0.0, 0.0, 2.97, 5.36, 4.71, -1.33, -2.84, -1.8, -1.6, -1.66, -4.47, -2.53, -0.0, 1.6, 1.41, 0.73, 1.56, 2.47, 3.8, 5.72, 5.93, 4.77, 4.11, 4.43, 5.72, 5.95, 2.4, 0.0, -0.67, -0.67, 1.47, 6.18, 7.6, 6.8, 8.17, 8.29, 6.94, 3.79, 2.68, 3.58, 2.53, 0.0, 0.0, -0.0, -0.0, -0.0, -0.0, -0.0, -0.0, -0.0, -0.0, -0.0, -0.0, -0.0, -0.0, -0.0, -0.0, 2.2, 2.2, 3.79, 5.36, 5.81, 6.26, 6.26, 6.71, 6.71, 7.15, 7.15, 7.15, 7.15, 7.08, 6.64, 5.94, 5.6, 2.6, -3.79, -3.16, -3.58, -1.79, -2.24, -2.4, -3.6, -3.58, -2.24, -2.24, -3.13, -3.13, 3.58, -0.0, -2.53, -2.21, -2.4, -2.4, -2.68, -1.6, 0.0, 1.34, 1.34, 0.89, 1.34, 0.0, 3.04, 2.86, -0.0, -4.02, -3.13, -2.24, -1.6, -2.54, -1.7, -0.0, -0.0, -0.0, -0.0, 2.18, 4.03, 4.58, 5.84, 6.7, 7.07, 8.72, 8.94, 7.63, 8.24, 7.81, 1.98, 0.0, 0.0, 0.0, 2.4, 3.79, 3.79, 5.75, 6.99, 4.11, 2.68, 4.6, 5.37, 3.16, 1.4, 1.4, 0.7, -0.0, -0.0, -0.0, -0.0, -0.0, -0.0, -0.0, -0.0, -0.0, -0.0, -0.0, 1.41, 1.55, 2.2, 2.2, 4.8, 4.8, 5.81, 5.81, 6.26, 6.26, 6.71, 6.71, 7.15, 7.15, 7.52, 7.08, 6.88, 6.36, 6.23, 4.43, 0.0, -3.79, -2.0, -1.79, -1.79, -2.24, -2.24, -3.58, -2.21, -2.0, -1.79, -1.79, -3.58, 3.58, -3.58, -3.58, 3.58, -0.0, -0.0, 3.13, 3.13, 3.13, 2.68, 2.68, 3.13, 2.68, 3.13, 4.47, 4.92, 4.02, 3.13, 3.13, -0.0, 1.34, 0.45, -0.85, -1.18, -0.0, 1.03, 3.12, 4.12, 5.05, 5.75, 6.57, 8.18, 9.16, 10.04, 9.2, 8.43, 8.8, 8.0, 3.6, 2.2, 2.97, 0.0, 0.79, 1.66, 4.54, 7.2, 5.59, 1.83, 3.07, 5.59, 2.95, 1.13, 1.13, 0.7, -0.0, -0.0, -0.0, -0.0, -0.0, -0.0, -0.0, -0.0, -0.0, -0.0, 1.08, 1.41, 1.41, 2.2, 2.2, 3.79, 4.8, 5.09, 5.81, 6.26, 6.26, 6.26, 6.26, 6.71, 7.15, 7.52, 6.88, 6.79, 6.79, 5.75, 5.36, 3.47, 0.0, -2.2, -1.58, -1.0, -1.9, -1.4, -1.4, -0.85, -1.9, -1.7, -1.2, -3.13, -3.58, -4.02, -4.02, 4.02, -0.0, -0.0, -0.0, -0.0, 4.47, 4.02, 3.58, 3.58, -0.0, -0.0, 5.81, 5.81, 4.92, 4.02, -0.0, -0.0, -0.0, 0.89, -1.58, -2.86, -0.0, 2.86, 4.73, 5.31, 5.32, 4.87, 4.24, 5.95, 8.73, 9.66, 8.59, 6.64, 5.31, 7.07, 6.7, 6.94, 5.81, 3.16, 0.0, 0.81, 3.47, 4.74, 6.28, 3.22, 1.94, 3.91, 2.95, 1.08, 1.08, 0.7, 0.7, -0.0, -0.0, -0.0, -0.0, -0.0, -0.0, -0.0, -0.0, 1.08, 1.08, 1.41, 1.41, 2.2, 2.21, 4.8, 4.4, 5.09, 5.64, 6.26, 6.26, 5.81, 3.58, 4.47, 5.81, 6.2, 4.34, 4.0, 5.6, 5.75, 5.75, 5.36, 2.8, 1.52, 1.3, 1.41, 0.0, -1.27, -1.13, -1.4, -1.88, -2.23, -2.8, -3.58, -4.02, -4.02, -4.02, -4.47, -0.0, -0.0, -0.0, -0.0, -0.0, -0.0, -0.0, 4.47, 4.92, 5.81, 5.81, 5.36, 4.92, 4.47, -0.0, -2.21, -2.68, 1.79, 0.45, -1.79, 0.0, 3.9, 7.6, 10.73, 11.62, 9.39, 3.97, 3.95, 6.26, 8.85, 8.63, 5.93, 6.52, 7.6, 4.74, 4.74, 4.11, 2.73, 2.2, 0.96, 1.6, 2.3, 4.19, 3.97, 2.11, 2.4, 2.53, 1.83, 1.83, 0.7, 0.81, -0.0, -0.0, -0.0, -0.0, -0.0, -0.0, -0.0, 1.08, 1.08, 1.08, 1.41, 1.55, 2.2, 2.2, 4.4, 4.4, 2.8, 3.39, 4.92, 6.26, 5.81, 3.82, 4.34, 4.82, 3.95, 5.51, 5.4, 4.6, 4.6, 4.98, 4.98, 4.11, 3.49, 3.49, 3.76, 4.43, 3.47, 0.0, -1.83, -2.68, -4.0, -3.9, -3.9, -4.47, -4.02, -4.47, -4.47, -0.0, -0.0, -0.0, -0.0, -0.0, -0.0, -0.0, 4.43, 4.02, 4.02, 5.36, 4.92, 4.02, 3.58, 3.58, -1.9, -3.13, 2.68, 1.79, 2.68, 4.02, 7.15, 10.73, 15.18, 16.96, 15.51, 9.7, 4.46, 4.71, 8.06, 7.94, 7.94, 8.38, 8.05, 6.4, 3.47, 2.6, 3.79, 4.4, 1.41, 0.81, 0.0, 2.2, 4.22, 1.47, 1.3, 1.47, 1.55, 1.55, 0.81, 0.81, 0.81, -0.0, -0.0, -0.0, -0.0, -0.0, 1.08, 1.08, 1.08, 1.41, 1.41, 1.55, 2.2, 2.2, 4.4, 4.4, 5.36, 4.47, 5.36, 5.81, 5.2, 5.4, 6.36, 6.45, 5.94, 5.51, 4.98, 4.57, 3.93, 3.93, 3.93, 3.48, 3.48, 3.79, 3.79, 4.98, 5.4, 4.84, 1.7, 0.0, 0.0, 4.92, 4.47, 4.47, -4.47, -4.47, -3.48, 4.92, -0.0, -0.0, -0.0, -0.0, -0.0, -0.0, 3.16, 4.11, 5.36, 0.0, 3.58, -3.13, -3.58, -3.13, -2.24, -2.68, -2.68, 2.68, 3.13, 4.6, 8.0, 11.36, 13.38, 15.17, 14.84, 11.17, 5.25, 4.48, 4.6, 6.44, 8.05, 8.38, 8.38, 7.45, 7.15, 4.4, 4.92, 4.4, 5.51, 2.0, 0.73, 1.84, 3.0, 1.3, 0.62, 0.64, 0.7, 0.7, 0.81, 0.81, 0.81, 0.81, -0.0, -0.0, -0.0, 0.88, 1.08, 1.08, 1.08, 1.41, 1.41, 1.55, 2.2, 3.48, 4.8, 4.8, 5.81, 6.71, 6.71, 5.81, 5.36, 5.7, 6.14, 6.17, 6.17, 5.73, 5.29, 4.57, 4.57, 3.83, 3.58, 3.58, 3.49, 3.49, 3.84, 4.19, 4.6, 4.98, 5.4, 5.2, 5.2, 5.64, 5.36, 4.47, 4.92, -0.0, 4.92, 4.47, 4.02, 4.02, 4.47, -0.0, -0.0, -0.0, -0.0, -1.98, -4.11, -2.24, -2.24, -1.79, -2.24, -2.24, -3.13, -4.02, -3.58, -2.68, 2.68, 1.74, 3.49, 3.6, 1.11, 4.74, 4.68, 4.01, 4.98, 4.66, 3.6, 2.82, 6.7, 7.01, 6.52, 5.37, 5.37, 5.58, 4.0, 3.6, 5.36, 7.06, 3.47, 2.8, 3.45, 0.76, 0.0, 0.0, -0.57, -0.57, 0.81, 0.81, 0.81, 0.81, 0.88, 0.88, 0.88, 1.08, 1.08, 1.08, 1.08, 1.41, 1.41, 1.55, 3.48, 3.48, 4.8, 4.8, 5.81, 6.26, 6.26, 6.26, 5.81, 5.7, 5.7, 5.73, 6.17, 5.73, 5.73, 5.29, 4.98, 4.98, 4.6, 4.6, 4.22, 3.83, 3.84, 3.84, 4.19, 4.46, 5.2, 5.2, 5.51, 5.73, 5.36, 4.92, 4.92, 4.47, 4.47, 4.47, 4.02, 4.47, 4.47, -4.47, 4.47, -0.0, -1.2, -3.16, -3.16, -2.54, -3.13, -2.68, -2.68, -3.13, -3.6, -2.84, -2.21, -2.24, 0.0, 0.45, -0.65, -1.41, 5.03, 2.53, 0.0, 0.89, 3.53, 4.65, 3.36, 1.61, 1.93, 5.37, 5.6, 3.47, 4.74, 3.48, 4.09, 4.24, 5.36, 6.71, 4.43, 2.99, 3.22, 0.0, -0.57, -1.23, -1.27, -1.27, 0.88, 0.88, 0.81, 0.81, 0.96, 0.88, 0.88, 1.08, 1.08, 1.08, 1.41, 1.41, 2.73, 2.73, 3.48, 3.79, 4.8, 4.8, 5.51, 6.26, 6.26, 6.26, 6.26, 6.26, 6.14, 6.14, 6.17, 5.73, 5.73, 5.51, 5.51, 5.51, 5.4, 4.98, 4.98, 4.98, 4.6, 4.19, 3.84, 3.84, 4.8, 4.8, 5.09, 5.09, 4.85, 4.47, 5.36, 4.92, 4.47, 4.92, 4.92, 4.92, 4.47, -4.02, -4.02, -4.02, -1.58, -2.54, -3.13, -2.68, -2.68, -1.9, -1.2, -3.13, -2.84, -2.53, -1.9, 4.47, 1.34, 0.89, -0.6, 3.13, 9.16, 10.62, 5.81, 0.0, 2.54, 4.23, 4.93, 3.04, 0.0, 0.0, 0.0, 7.15, 6.26, 4.47, 4.47, 4.92, 5.36, 3.48, 5.36, 2.2, 0.0, -2.84, -1.33, -1.11, -1.8, -1.8, 0.88, 0.88, 0.81, 0.96, 0.96, 0.96, 0.88, 1.08, 1.19, 1.19, 1.55, 1.55, 2.73, 2.73, 3.48, 3.79, 4.8, 4.8, 5.51, 5.81, 6.26, 6.26, 6.26, 6.26, 6.26, 6.14, 6.17, 6.17, 5.94, 5.94, 5.94, 5.94, 5.94, 5.2, 5.2, 5.6, 5.6, 4.98, 4.98, 4.6, 4.6, 4.6, 4.66, 4.66, 4.85, 4.82, 5.26, 5.2, 4.8, 4.11, 0.0, 0.0, 4.47, -4.02, -3.58, -3.58, -3.13, -1.79, -1.34, -0.95, 0.0, 0.57, 0.0, -3.13, -2.84, -2.21, -1.2, -1.4, -0.0, 0.45, 0.0, 2.84, 8.94, 11.11, 11.21, 8.48, 2.5, 2.2, 5.03, 5.7, 3.68, 0.0, 0.0, 4.0, 3.79, 3.48, 3.48, 4.92, -0.0, -0.0, -0.0, 5.81, -4.4, -4.24, -3.35, -2.51, -3.14, -3.14, 1.7, 1.7, 1.05, 0.96, 0.96, 0.96, 0.96, 1.19, 1.19, 1.19, 1.55, 2.73, 2.73, 3.48, 3.48, 3.79, 4.8, 5.09, 5.51, 5.81, 5.81, 6.26, 6.26, 6.26, 6.26, 6.14, 6.14, 6.17, 5.94, 5.94, 5.94, 5.94, 5.94, 5.6, 5.6, 5.6, 5.6, 5.6, 4.98, 4.98, 4.98, 4.6, 4.98, 4.98, 4.57, 4.82, 5.2, 5.64, 5.51, 5.2, 2.6, 2.2, 4.92, -4.02, -3.58, -3.58, -2.68, 2.24, 1.79, -0.6, 0.0, 2.53, 1.9, 2.68, -1.2, -1.9, -1.2, -1.2, -1.26, 0.89, 0.0, 1.6, 6.64, 9.42, 10.43, 9.36, 8.22, 2.53, 2.73, 5.37, 6.7, 3.53, 0.0, -6.32, -5.81, 4.92, 4.92, 4.47, -1.41, -1.08, -0.0, -0.0, -2.2, -2.73, -4.92, -3.6, -2.86, -2.86, 1.99, 1.99, 1.05, 0.96, 0.96, 0.96, 0.96, 1.19, 1.19, 1.55, 1.55, 2.73, 2.73, 3.48, 3.79, 3.79, 4.8, 5.09, 5.51, 5.81, 5.81, 5.81, 6.26, 6.26, 6.26, 6.14, 6.14, 6.17, 5.94, 5.94, 5.94, 5.51, 5.6, 5.6, 5.6, 5.6, 5.6, 5.6, 5.2, 5.2, 4.98, 5.4, 4.98, 4.98, 4.98, 4.8, 5.2, 5.64, 5.51, 5.51, 5.2, 4.4, 3.16, 3.58, -1.79, -1.79, -2.68, -1.79, 0.89, 0.0, 0.0, 0.85, 2.53, 2.68, -0.0, -2.0, -1.58, 0.89, -1.34, 0.0, 0.0, 1.49, 4.19, 6.71, 6.82, 6.31, 4.05, 7.15, 1.33, 3.48, 6.32, 7.26, 0.0, -7.81, -6.07, -5.81, 6.26, -0.0, -1.27, -1.41, -0.0, 2.21, -0.0, -0.0, -3.48, -4.92, -2.0, -2.0, 1.99, 1.99, 1.99, 1.05, 0.96, 0.96, 0.96, 1.19, 1.19, 1.55, 2.73, 2.73, 2.73, 3.48, 3.79, 3.79, 4.46, 5.09, 5.51, 5.81, 5.81, 5.81, 5.81, 5.81, 5.81, 5.81, 5.7, 5.73, 5.73, 5.51, 5.51, 5.51, 5.2, 5.2, 5.2, 5.2, 5.6, 5.2, 5.2, 5.2, 4.98, 4.6, 4.98, 4.98, 4.8, 4.8, 4.8, 5.2, 4.84, 4.84, 3.79, 4.4, 4.0, 3.58, 0.0, -1.6, -2.68, -1.6, -1.6, -0.95, -0.6, 0.0, 1.49, 2.8, 2.68, -0.0, 1.34, 0.0, 0.0, 0.0, 0.0, 1.33, 2.48, 2.51, 3.58, 4.98, 5.37, 4.84, 1.98, 2.79, 4.84, 9.17, 6.7, -8.24, -7.5, -7.15, -4.92, -1.9, -0.99, -0.0, -0.0, 2.68, 4.92, 5.81, 6.26, 5.36, 3.79, 3.79, 1.99, 1.99, 1.99, 1.99, 0.96, 0.96, 0.96, 1.19, 1.19, 1.19, 2.73, 2.73, 2.73, 3.48, 3.79, 3.79, 4.46, 5.09, 5.51, 5.51, 5.81, 5.81, 5.81, 5.81, 5.81, 5.81, 5.7, 5.73, 5.73, 5.51, 5.51, 5.51, 5.2, 5.2, 5.2, 5.2, 5.2, 5.2, 5.2, 5.2, 4.98, 4.6, 4.22, 3.35, 3.39, 4.98, 4.98, 4.65, 4.29, 4.84, 4.46, 4.4, 4.0, 3.2, 2.21, -2.21, -1.6, -2.0, -1.86, -1.26, -0.6, 0.0, 1.9, 1.58, 2.68, -0.0, -0.0, 0.0, 0.0, -1.0, 0.0, 2.86, 3.84, 3.47, 3.17, 6.01, 7.08, 7.15, 4.92, 2.84, 3.49, 8.82, 9.96, -11.18, -5.94, -4.3, -3.87, -2.91, -2.0, -0.0, 4.02, 3.58, 3.13, 5.36, 7.15, 7.6, 7.21, 7.21, 1.99, 1.99, 1.99, 1.99, 1.83, 1.83, 1.83, 1.19, 1.19, 1.19, 2.73, 2.73, 2.98, 3.79, 3.79, 4.46, 4.46, 5.09, 5.51, 5.51, 5.81, 5.81, 5.81, 5.81, 5.81, 5.81, 5.7, 5.7, 5.73, 5.51, 5.51, 5.51, 5.2, 5.2, 5.2, 5.2, 5.2, 5.2, 5.2, 5.2, 4.6, 4.6, 4.6, 3.93, 3.93, 2.98, 4.4, 4.6, 3.93, 3.16, 3.72, 3.35, 3.6, 2.97, 2.4, 0.0, -2.5, -3.14, -2.15, -1.58, -0.57, 1.0, 1.0, -1.26, -2.24, -1.0, -0.0, -0.0, -2.24, -1.0, 0.0, 2.6, 5.36, 6.98, 6.95, 7.26, 7.27, 6.7, 6.36, 4.4, 2.41, 6.48, 9.17, 6.44, -9.83, -5.2, -6.11, -4.92, -4.02, -3.58, -4.02, 5.36, 4.47, 4.02, 5.81, 6.71, 7.6, 7.6, 1.99, 1.99, 1.99, 1.99, 1.99, 1.83, 1.83, 2.2, 2.2, 2.2, 2.73, 2.73, 3.79, 3.79, 4.46, 4.46, 5.09, 5.09, 5.51, 5.51, 5.81, 5.81, 5.81, 5.81, 5.81, 5.81, 5.7, 5.7, 5.73, 5.73, 5.51, 5.51, 5.51, 5.2, 5.2, 5.2, 5.2, 4.84, 4.84, 4.84, 4.19, 4.6, 4.6, 3.93, 3.48, 3.16, 3.16, 4.19, 3.48, 3.16, 2.84, 2.98, 2.21, 2.6, 2.54, 1.2, -1.24, -2.53, -2.84, -1.24, -0.57, 0.0, -0.8, -2.12, -1.34, -0.6, -0.8, -1.58, 1.34, 0.95, 0.54, 0.71, 3.13, 9.42, 10.28, 9.03, 7.9, 7.27, 6.87, 6.63, 4.29, 2.32, 5.69, 8.01, 0.0, -9.33, -9.75, -7.12, -5.67, -5.59, -5.94, -5.2, -4.11, -0.0, 6.26, 7.15, 6.8, 6.8, 1.99, 1.99, 1.99, 1.99, 1.99, 1.83, 2.2, 2.2, 2.2, 2.2, 2.73, 2.73, 2.98, 3.79, 4.46, 4.46, 5.09, 5.09, 5.51, 5.51, 5.81, 5.81, 5.81, 5.81, 5.81, 5.81, 5.7, 5.26, 3.9, 5.29, 5.51, 5.51, 5.51, 5.2, 5.2, 5.2, 5.2, 4.84, 4.84, 4.46, 4.19, 4.19, 4.19, 4.19, 4.19, 4.19, 4.11, 3.79, 3.93, 3.48, 3.48, 3.16, 3.35, 2.21, 2.23, 1.9, 0.0, -1.2, -1.88, -1.88, -1.24, -1.58, -2.4, -1.79, -1.6, -0.6, -0.0, 0.45, 0.89, 2.12, 1.58, 0.0, 0.63, 4.38, 11.21, 10.28, 5.58, 5.03, 6.14, 8.59, 9.2, 7.44, 6.32, 9.2, 11.45, 12.07, -12.71, -12.08, -8.79, -5.72, -4.93, -4.52, -4.4, -3.16, -0.0, 2.26, 1.84, 1.84, 2.76, 2.76, 2.76, 1.99, 1.99, 1.99, 2.2, 2.2, 2.2, 2.2, 2.73, 2.98, 2.98, 3.79, 4.46, 4.46, 5.09, 5.51, 5.51, 5.81, 5.81, 5.81, 5.81, 5.81, 5.81, 5.81, 5.7, 5.7, 5.7, 3.9, 5.09, 5.09, 5.09, 5.09, 4.8, 4.8, 4.8, 4.46, 4.46, 4.46, 4.19, 4.19, 4.19, 4.19, 4.19, 4.6, 4.98, 4.65, 4.65, 3.79, 3.79, 3.79, 3.48, 3.72, 2.98, 2.6, 2.6, 0.0, -1.9, -3.07, -3.72, -2.4, -2.24, -1.79, -1.26, -0.6, -0.0, 0.45, 0.63, 1.6, 1.79, 1.34, 0.0, 2.86, 9.39, 12.96, 5.26, 0.99, 4.4, 8.94, 9.83, 9.83, 9.39, 9.83, 12.52, 14.3, 14.75, 6.4, -8.73, -5.82, -5.05, -4.52, -4.3, -3.2, -3.16, -0.0, -0.0, -0.0, 2.76, 2.76, 2.76, 2.76, 2.76, 1.99, 2.4, 2.4, 2.2, 2.73, 2.73, 2.98, 2.98, 4.46, 4.46, 4.46, 5.09, 5.51, 5.51, 5.81, 5.81, 5.81, 5.81, 5.81, 5.81, 5.81, 5.7, 5.7, 5.7, 5.4, 4.98, 4.98, 4.98, 5.09, 4.8, 4.8, 4.8, 4.8, 4.46, 4.46, 4.19, 4.19, 4.19, 4.19, 4.19, 4.6, 4.6, 4.98, 4.98, 4.65, 4.65, 4.11, 3.79, 3.48, 3.16, 3.35, 3.35, 2.53, -1.9, -3.82, -3.35, -2.4, -1.79, -2.24, -1.34, -1.34, -0.89, -0.89, 0.89, 0.0, 0.89, 0.89, 0.8, 3.22, 9.03, 13.7, 12.96, 6.36, 3.6, 5.44, 8.33, 9.79, 10.73, 11.62, 12.96, 14.3, 15.17, 14.23, -0.0, -6.7, -4.27, -4.93, -4.73, -3.82, -4.15, -2.6, -1.32, -1.32, 2.76, 2.76, 2.76, 2.76, 2.76, 2.76, 3.22, 3.22, 3.22, 2.73, 2.98, 3.79, 4.46, 4.46, 4.46, 5.09, 5.09, 5.51, 5.51, 5.81, 5.81, 5.81, 5.81, 5.81, 5.81, 5.7, 5.7, 5.7, 5.7, 5.4, 4.98, 4.98, 4.6, 4.6, 4.6, 4.8, 4.8, 4.8, 4.46, 4.46, 4.19, 4.19, 4.19, 4.19, 4.19, 4.19, 4.6, 4.6, 4.98, 4.98, 4.65, 4.29, 3.79, 3.48, 3.16, 3.16, 3.16, 2.84, 1.13, -2.21, -3.2, -1.79, -1.79, -2.24, -2.24, -1.79, -1.79, -1.34, -1.34, -1.2, -1.34, 0.45, 2.6, 7.42, 9.84, 12.27, 14.62, 14.38, 12.99, 11.54, 11.14, 11.18, 11.55, 11.98, 12.52, 13.67, 13.88, 10.8, 2.17, -5.37, -5.75, -4.52, -4.4, -3.82, -4.24, -5.75, -3.68, -3.68, 2.99, 2.99, 2.76, 2.76, 2.76, 3.22, 3.22, 3.22, 3.22, 3.79, 3.79, 3.79, 4.46, 4.46, 4.46, 5.09, 5.51, 5.64, 5.81, 5.81, 5.81, 5.81, 5.81, 5.81, 5.81, 5.7, 5.7, 5.7, 5.7, 5.4, 4.98, 4.98, 4.6, 4.6, 4.6, 4.6, 4.8, 4.8, 4.46, 4.46, 4.19, 4.19, 4.19, 4.19, 4.19, 4.19, 4.19, 4.6, 4.98, 4.98, 4.98, 4.29, 4.29, 3.93, 3.58, 3.58, 3.58, 3.22, 2.53, 0.0, -0.99, -3.07, -2.68, -2.68, -2.24, -2.68, -2.24, -1.79, -1.34, -1.34, -1.34, 0.45, 2.68, 8.94, 10.73, 10.25, 10.73, 12.46, 14.25, 14.06, 12.03, 8.94, 7.94, 8.49, 7.44, 6.32, 6.79, 4.19, 3.45, -0.0, -4.6, -4.09, -3.45, -4.22, -6.13, -7.28, -5.37, -5.37, 3.63, 3.63, 2.99, 2.76, 2.76, 3.22, 3.22, 3.22, 3.22, 3.79, 3.79, 3.79, 4.46, 4.46, 4.46, 5.09, 5.64, 5.64, 5.81, 5.81, 5.81, 5.81, 5.81, 5.81, 5.81, 5.7, 5.7, 5.7, 5.4, 5.4, 4.98, 4.98, 4.6, 4.6, 4.6, 4.6, 4.6, 4.46, 4.46, 4.46, 4.46, 4.19, 4.19, 3.72, 4.6, 4.46, 4.46, 4.19, 4.54, 4.54, 4.98, 4.29, 3.93, 3.93, 3.58, 3.22, 3.58, 3.22, 2.5, 2.5, 0.99, -2.6, -3.13, -2.63, -2.24, -2.68, -1.7, -1.6, -1.2, -1.34, -1.79, -1.34, 1.0, 8.0, 10.6, 8.05, 6.02, 8.73, 11.46, 12.03, 10.28, 7.6, 4.92, -0.0, -0.0, 2.2, 3.07, 2.79, 3.16, 3.48, -0.0, -3.16, -3.14, -5.36, -6.9, -7.67, -6.98, -6.98, 3.63, 3.63, 3.63, 3.63, 3.22, 3.22, 3.22, 3.22, 3.79, 3.79, 3.79, 4.46, 4.46, 4.46, 5.09, 5.09, 5.2, 5.81, 5.81, 5.81, 5.81, 5.81, 5.81, 5.81, 5.64, 5.7, 5.7, 5.7, 5.4, 4.98, 4.98, 4.98, 4.6, 4.6, 4.6, 4.6, 4.19, 4.19, 4.19, 4.46, 4.19, 4.19, 4.19, 3.35, 4.19, 4.84, 4.46, 4.19, 4.19, 4.54, 4.54, 3.79, 3.48, 3.16, 2.84, 2.84, 2.84, 2.84, 2.86, 2.5, 2.86, 0.0, -2.24, -2.68, -1.79, -2.68, -2.68, -1.34, -1.34, -1.79, -1.34, -0.89, -0.0, 4.6, 9.81, 10.58, 5.31, 6.0, 8.47, 9.16, 8.15, 6.64, 6.71, -0.0, -0.0, 1.2, 2.51, 3.16, 3.78, 4.09, 3.83, -0.0, -5.06, -6.44, -7.28, -6.9, -6.8, -6.98, 3.63, 3.63, 3.63, 4.11, 3.79, 3.79, 3.79, 3.22, 3.79, 3.79, 3.79, 4.46, 4.46, 4.46, 5.09, 5.2, 5.2, 5.36, 5.81, 5.81, 5.81, 5.81, 5.81, 5.81, 5.64, 5.7, 5.7, 5.4, 5.4, 4.98, 4.98, 4.6, 4.6, 4.6, 4.6, 4.6, 4.19, 4.19, 4.19, 4.19, 4.19, 4.19, 4.19, 3.48, 2.84, 4.46, 4.46, 3.79, 4.19, 4.19, 3.79, 3.79, 3.48, 3.16, 2.84, 2.84, 2.84, 2.84, 2.86, 2.86, 3.07, 2.21, -1.2, -1.79, -2.24, -3.13, -1.79, -1.79, -1.79, -1.34, 1.34, 1.34, 0.89, 2.0, 6.9, 9.77, 9.66, 6.79, 4.8, 4.74, 3.72, 3.22, 5.6, 5.36, 1.4, 1.2, 2.23, 3.14, 3.72, 4.27, 4.8, 4.43, -4.74, -6.8, -6.64, -6.23, -5.6, -6.8, 3.63, 3.63, 3.63, 4.11, 4.11, 4.11, 3.79, 3.79, 4.29, 4.29, 4.29, 4.8, 4.8, 4.8, 5.2, 5.2, 5.2, 5.36, 5.81, 5.81, 5.81, 5.81, 5.81, 5.64, 5.64, 5.64, 5.7, 5.4, 5.4, 4.98, 4.98, 4.6, 4.6, 4.6, 4.6, 4.19, 4.19, 4.19, 4.19, 4.19, 3.79, 3.79, 3.79, 3.79, 3.72, 3.48, 3.79, 3.48, 3.07, 3.07, 3.48, 3.48, 3.16, 2.84, 2.84, 2.84, 2.84, 2.84, 2.53, 2.86, 3.07, 2.53, 0.0, -3.13, -3.13, -3.2, -2.0, -4.02, -1.34, -1.34, 1.34, 0.89, 0.0, 0.0, 2.4, 5.37, 8.59, 9.08, 9.26, 4.82, 1.9, 2.68, 5.29, 7.06, 5.94, 1.27, 1.6, 2.84, 3.49, 3.49, 3.84, 2.48, -4.0, -4.77, -4.57, -4.98, -4.57, -4.57, 3.63, 3.63, 4.11, 4.11, 4.11, 4.11, 4.11, 4.29, 4.29, 4.29, 4.8, 4.8, 4.8, 5.2, 5.2, 5.2, 5.36, 5.36, 5.81, 5.81, 5.81, 5.81, 5.81, 5.64, 5.64, 5.64, 5.4, 5.4, 5.4, 5.4, 4.6, 4.6, 4.6, 4.6, 4.6, 4.19, 4.19, 4.19, 4.19, 3.79, 3.79, 3.79, 3.79, 3.79, 4.11, 3.72, 3.79, 3.07, 2.79, 3.07, 2.79, 3.16, 2.84, 2.84, 2.53, 2.53, 2.53, 2.84, 2.53, 2.53, 2.79, 2.79, 1.4, 0.0, -2.21, -2.53, -3.58, -3.58, -1.34, -1.34, -1.34, 0.0, 0.0, 0.0, 0.0, 2.68, 7.94, 11.61, 13.01, 11.5, 8.55, 8.58, 10.63, 11.62, 9.2, -1.7, -0.0, -0.0, 1.08, 2.2, 2.2, -0.0, -4.34, -3.95, -4.15, -4.57, -4.57, -4.57, 4.11, 4.11, 4.54, 4.11, 4.11, 4.11, 4.11, 4.29, 4.29, 4.29, 4.8, 4.8, 4.8, 5.2, 5.2, 5.2, 5.36, 5.36, 5.81, 5.81, 5.81, 5.81, 5.64, 5.64, 5.64, 5.64, 5.4, 5.4, 5.4, 4.98, 4.6, 4.6, 4.6, 4.6, 4.19, 4.19, 4.19, 4.19, 3.79, 3.79, 3.79, 3.79, 3.79, 3.79, 4.11, 4.11, 3.79, 3.35, 3.35, 3.07, 3.07, 3.07, 2.51, 2.84, 2.53, 2.53, 2.53, 2.53, 2.84, 2.53, 2.79, 3.14, 2.15, 0.0, -2.53, -3.58, -3.58, -3.13, -1.34, -1.79, -1.34, 0.0, 0.0, 0.0, 0.65, 1.9, 4.85, 10.73, 13.5, 12.74, 11.94, 12.84, 13.51, 12.74, -0.0, -5.37, -2.07, -1.66, -0.96, -0.96, -2.2, -4.4, -4.41, -3.32, -3.74, -4.57, -4.57, -4.57, 4.54, 4.54, 4.54, 4.54, 4.11, 4.11, 4.65, 4.29, 4.29, 4.29, 4.8, 4.8, 4.8, 5.2, 5.2, 5.2, 5.36, 5.36, 5.36, 5.81, 5.81, 5.64, 5.64, 5.64, 5.64, 5.2, 5.4, 5.4, 5.4, 4.98, 4.6, 4.6, 4.6, 4.19, 4.19, 4.19, 4.19, 4.19, 3.79, 3.79, 3.79, 3.79, 3.79, 3.79, 3.79, 3.79, 3.79, 3.79, 3.35, 3.35, 3.35, 3.35, 3.07, 2.84, 2.53, 2.53, 2.53, 2.84, 2.84, 2.84, 2.79, 3.14, 3.14, 0.87, -2.84, -3.58, -3.58, -1.79, -1.79, -1.34, 0.45, 0.0, 0.0, 1.27, 1.98, 2.6, 3.53, 8.05, 11.46, 11.42, 12.12, 14.42, 15.5, 13.58, 5.6, -7.27, -6.01, -3.16, -3.16, -3.16, -4.46, -3.39, -3.32, -3.32, -3.74, -4.66, -4.66, -4.66, 4.54, 4.54, 4.54, 4.54, 4.54, 4.98, 4.65, 4.29, 4.29, 4.8, 4.8, 4.8, 5.2, 5.2, 5.2, 5.36, 5.36, 5.36, 5.36, 5.81, 5.81, 5.64, 5.64, 5.64, 5.2, 5.2, 5.2, 5.4, 4.98, 4.98, 4.6, 4.6, 4.19, 4.19, 4.19, 4.19, 4.19, 3.79, 3.79, 3.79, 3.79, 4.11, 3.43, 3.43, 3.79, 3.79, 3.79, 3.79, 3.35, 3.35, 3.35, 3.35, 3.07, 2.79, 2.84, 2.53, 2.84, 2.84, 2.84, 2.84, 2.53, 2.79, 2.79, 2.41, 0.0, -3.58, -3.58, -1.79, -1.79, -1.34, 0.0, 0.0, 0.0, 1.4, 2.8, 2.24, 2.68, 6.26, 8.29, 7.76, 9.8, 14.42, 16.2, 14.2, 9.48, -7.9, -9.55, -3.83, -3.07, -4.09, -3.72, -2.86, -3.07, -3.32, -3.74, -5.94, -5.94, -5.94, 4.54, 4.54, 4.54, 4.54, 4.98, 4.98, 4.98, 4.6, 4.29, 4.8, 4.8, 4.8, 5.2, 5.2, 5.2, 5.36, 5.36, 5.36, 5.36, 5.81, 5.64, 5.64, 5.64, 5.64, 5.2, 5.2, 5.2, 5.4, 4.98, 4.98, 4.98, 4.6, 4.19, 4.19, 4.19, 4.19, 3.79, 3.79, 3.79, 3.79, 3.79, 3.72, 3.43, 3.43, 3.43, 3.43, 3.79, 3.79, 3.79, 3.35, 3.35, 3.35, 3.07, 3.07, 2.84, 2.84, 2.84, 2.84, 2.84, 2.84, 2.84, 2.79, 2.79, 2.53, 0.87, -2.53, -3.58, -3.58, -3.58, -0.8, 0.0, 0.0, 0.0, 0.0, 2.24, 2.24, 2.68, 5.81, 6.0, 4.58, 6.4, 12.56, 15.99, 14.57, 10.43, -10.6, -7.6, -3.97, -3.6, -4.22, -3.22, -2.84, -2.86, -2.86, -4.57, -4.66, -4.66, -4.66, 4.54, 4.54, 4.54, 4.54, 4.98, 4.98, 4.98, 4.6, 4.98, 4.8, 4.8, 5.2, 5.2, 5.2, 5.36, 5.36, 5.36, 5.36, 5.36, 5.81, 5.81, 5.64, 5.64, 5.2, 5.2, 5.2, 5.2, 4.98, 4.98, 4.98, 4.98, 4.19, 4.19, 4.19, 4.19, 3.79, 3.79, 3.79, 3.79, 3.79, 3.43, 3.72, 3.72, 3.43, 3.43, 3.43, 3.43, 3.43, 3.43, 3.35, 3.35, 3.35, 3.07, 2.79, 2.51, 2.84, 2.84, 2.84, 2.84, 2.84, 2.84, 2.53, 2.53, 2.79, 1.88, 0.0, 3.58, -2.53, -3.58, -1.6, -0.95, -0.8, -0.95, -1.2, -1.79, -1.79, 2.68, 2.53, 2.99, 3.72, 5.37, 9.3, 12.52, 12.97, 9.71, -10.73, -5.4, -3.95, -4.09, -3.48, -2.3, -1.8, -1.6, -3.16, -4.4, -4.15, -4.15, -4.15, 4.54, 4.54, 4.54, 4.98, 4.98, 4.98, 4.98, 4.98, 4.98, 4.98, 4.8, 5.2, 5.2, 5.2, 5.36, 5.36, 5.36, 5.36, 5.36, 5.81, 5.64, 5.64, 5.64, 5.2, 5.2, 5.2, 5.2, 4.98, 4.98, 4.98, 4.98, 4.54, 4.19, 4.19, 4.19, 3.79, 3.79, 3.79, 3.79, 3.79, 3.43, 3.43, 3.43, 3.43, 3.43, 3.43, 3.43, 3.43, 3.43, 3.43, 2.98, 3.35, 3.07, 2.79, 2.79, 2.51, 2.51, 2.84, 2.84, 2.07, 2.84, 2.53, 2.53, 2.53, 2.5, 1.26, 1.79, -2.0, -2.12, -2.24, -1.79, -1.26, -1.26, -1.6, -1.6, -1.79, -1.26, -0.0, 0.87, 2.76, 3.91, 5.69, 7.14, 9.21, 10.18, 10.18, -0.0, -2.95, -3.45, -3.16, -1.27, -0.7, -0.98, -2.23, -3.35, -4.38, -4.38, -4.38, 4.54, 4.54, 4.54, 4.98, 4.98, 4.98, 4.98, 4.98, 4.98, 4.98, 5.26, 5.26, 5.2, 5.36, 5.36, 5.36, 5.36, 5.36, 5.36, 5.2, 5.64, 5.64, 5.2, 5.2, 5.2, 5.2, 4.65, 4.65, 4.98, 4.98, 4.98, 4.54, 4.19, 4.19, 4.19, 3.79, 3.79, 3.79, 3.79, 3.43, 3.43, 3.43, 3.43, 3.43, 3.43, 3.43, 3.43, 3.43, 3.43, 2.98, 2.98, 2.73, 2.73, 2.79, 2.79, 2.79, 2.51, 2.51, 2.51, 2.07, 2.07, 2.15, 2.53, 2.53, 2.21, 1.0, 0.0, -1.34, -1.79, -1.79, -1.79, 1.79, 1.79, -1.6, -1.6, -1.34, -1.34, -0.8, -0.0, 1.33, 2.76, 2.6, 3.97, 7.56, 12.14, 7.44, 0.73, -0.0, -6.71, -3.09, -1.4, -0.0, -0.0, -1.13, -3.48, -5.6, -5.6, -5.6, 4.54, 4.54, 4.54, 4.98, 4.98, 4.98, 4.98, 5.4, 4.98, 4.98, 5.26, 5.26, 5.26, 5.36, 5.36, 5.36, 5.36, 5.36, 5.36, 5.2, 5.64, 5.64, 5.2, 5.2, 5.2, 5.2, 4.65, 4.65, 4.98, 4.98, 4.54, 4.54, 4.19, 4.19, 3.79, 3.79, 3.79, 3.79, 3.79, 3.43, 3.43, 3.43, 3.43, 3.43, 3.43, 3.43, 3.43, 3.43, 3.43, 2.98, 2.98, 2.73, 2.73, 2.79, 2.79, 2.79, 2.79, 2.51, 2.51, 2.51, 2.07, 1.84, 2.15, 2.15, 2.53, 1.13, 0.0, -0.57, -0.8, -0.6, -0.95, 1.79, 1.34, 1.79, -1.79, -1.34, -1.34, -1.26, -0.0, -0.0, 1.6, 2.3, 3.07, 7.2, 13.86, 7.59, -0.0, -0.0, -6.08, -5.34, -3.13, -0.0, -0.0, -0.0, -4.43, -5.2, -5.2, -5.2, 4.54, 4.54, 4.54, 4.98, 4.98, 4.98, 5.4, 5.4, 5.4, 4.98, 5.26, 5.26, 5.26, 5.36, 5.36, 5.36, 5.36, 5.36, 5.2, 5.2, 5.64, 5.64, 5.2, 5.2, 5.2, 4.65, 4.65, 4.65, 4.98, 4.98, 4.54, 4.54, 4.19, 4.19, 3.79, 3.79, 3.79, 3.35, 2.98, 3.43, 3.43, 3.43, 3.43, 3.43, 3.12, 3.12, 3.12, 3.12, 3.43, 2.98, 2.98, 2.73, 2.73, 2.48, 2.48, 2.79, 2.79, 2.79, 2.51, 2.51, 2.07, 1.84, 2.15, 2.15, 2.15, 0.87, 0.0, -0.65, -0.65, -1.0, -0.99, -0.6, 0.95, 1.6, 1.79, -0.95, -0.89, -0.0, -0.0, -0.0, 0.85, 1.6, 3.48, 13.86, 15.65, 2.54, -0.0, -0.0, -6.07, -6.4, -4.4, -3.16, 4.02, -0.0, -4.11, -5.6, -5.6, -5.6, 4.84, 4.84, 4.84, 5.2, 5.2, 4.98, 5.4, 5.4, 5.4, 5.7, 5.7, 5.26, 5.36, 5.36, 5.36, 5.36, 5.36, 5.36, 5.2, 5.2, 5.2, 5.2, 5.2, 5.2, 5.2, 4.65, 4.65, 4.65, 4.98, 4.54, 4.54, 4.54, 4.54, 3.79, 3.79, 3.79, 3.79, 3.35, 2.98, 3.43, 3.43, 3.43, 3.43, 3.12, 3.12, 3.12, 3.12, 3.12, 3.12, 3.12, 2.98, 2.73, 2.73, 2.48, 2.48, 2.48, 2.48, 2.79, 2.51, 2.51, 2.51, 2.23, 2.23, 2.53, 2.41, 1.49, 0.66, 0.0, -0.61, -1.2, -0.57, -0.57, 0.0, 0.0, 0.0, 0.0, 0.45, -0.0, -0.0, -0.0, -0.0, 0.85, 7.6, 13.28, 14.31, -0.0, -0.0, -0.0, -4.77, -6.4, -5.43, -2.48, 0.0, -4.47, -5.58, -6.4, -6.4, -6.4, 4.84, 4.84, 4.84, 5.2, 5.2, 5.2, 5.51, 5.51, 5.4, 5.7, 5.7, 5.7, 5.36, 5.36, 5.36, 5.36, 5.36, 5.26, 5.26, 5.26, 5.26, 4.8, 5.2, 5.2, 5.2, 4.65, 4.65, 4.65, 4.98, 4.54, 4.54, 4.54, 4.54, 3.79, 3.79, 3.79, 3.79, 3.43, 2.98, 2.98, 3.43, 3.43, 3.12, 3.12, 3.12, 3.12, 3.12, 3.12, 3.12, 3.12, 2.44, 2.44, 2.73, 2.73, 2.48, 2.48, 2.48, 2.48, 2.79, 2.51, 2.51, 2.51, 2.23, 2.23, 2.51, 2.07, 1.27, 0.0, -1.2, -1.24, -0.8, -0.6, -0.57, -0.71, -0.8, -0.6, -0.89, -1.34, -0.0, -0.0, -0.0, -0.0, 5.75, 10.38, 12.52, -0.0, -0.0, -0.0, -2.48, -6.88, -5.82, -2.53, 0.0, -6.26, -7.21, -7.37, -7.37, -7.37, 4.84, 4.84, 5.2, 5.2, 5.2, 5.2, 5.51, 5.51, 5.51, 5.73, 5.7, 5.7, 5.81, 5.36, 5.36, 5.36, 5.36, 5.26, 5.26, 5.26, 5.26, 4.98, 4.98, 4.98, 4.8, 4.29, 4.29, 4.98, 4.98, 4.54, 4.54, 4.54, 4.54, 3.79, 3.79, 3.79, 3.79, 3.43, 2.98, 2.98, 3.43, 3.43, 3.12, 3.12, 3.12, 3.12, 3.12, 3.12, 3.12, 3.12, 2.44, 2.44, 2.44, 2.73, 2.48, 2.48, 2.48, 2.48, 2.48, 2.23, 2.51, 2.51, 2.51, 2.51, 2.51, 2.79, 1.8, 0.0, -1.13, -1.86, -1.7, -1.7, -1.49, -1.86, -1.2, 0.89, 0.89, -1.79, -1.79, 1.34, 1.34, 1.26, 3.39, 8.05, 9.6, 9.83, -0.0, -0.0, -0.0, -5.36, -5.84, -4.19, -5.37, -5.06, -8.05, -8.49, -8.49, -8.49, 4.84, 4.84, 5.2, 5.2, 5.2, 5.51, 5.51, 5.51, 5.51, 5.73, 5.73, 5.7, 5.81, 5.81, 5.36, 5.36, 5.36, 5.26, 5.26, 5.26, 4.98, 4.98, 4.98, 4.98, 4.6, 4.6, 4.6, 4.6, 4.98, 4.54, 4.54, 4.54, 4.11, 3.79, 3.79, 3.79, 3.43, 3.43, 2.98, 2.98, 3.43, 3.43, 3.12, 3.12, 3.12, 3.12, 3.12, 3.12, 3.12, 3.12, 3.12, 2.44, 2.44, 2.44, 2.44, 2.48, 2.48, 2.0, 2.48, 2.48, 2.23, 2.51, 2.51, 2.51, 3.16, 2.86, 2.48, 0.66, -1.33, -1.86, -1.7, -1.7, -1.86, -2.12, -1.2, 0.45, 0.89, -1.34, -1.79, -1.79, 0.0, 0.0, 2.8, 6.07, 8.8, 5.0, -0.0, -0.0, -0.0, -2.84, -5.36, -6.28, -6.01, -2.4, -6.01, -9.39, -9.39, -9.39, 5.21, 5.21, 5.2, 5.2, 5.2, 5.51, 5.51, 5.51, 5.73, 5.73, 5.73, 5.81, 5.81, 5.81, 5.81, 5.36, 5.36, 5.26, 5.26, 5.26, 4.98, 4.98, 4.98, 4.98, 4.6, 4.6, 4.6, 4.6, 4.6, 4.54, 4.54, 4.54, 4.11, 4.11, 3.79, 3.79, 3.43, 3.43, 3.43, 2.98, 3.43, 3.12, 3.12, 3.12, 3.12, 3.12, 3.12, 3.12, 3.12, 3.12, 3.12, 2.44, 2.44, 2.44, 2.44, 2.22, 2.22, 2.0, 2.0, 2.0, 2.48, 2.23, 2.23, 2.23, 2.86, 2.86, 3.15, 0.66, -1.33, -1.86, -1.86, -1.86, -1.49, -1.6, -1.2, -0.95, 0.0, 0.0, 0.0, -1.58, -1.58, 0.0, 2.21, 5.81, 9.75, 9.66, 7.59, -0.0, -0.0, 3.58, 0.0, -5.06, -4.14, -3.15, -4.96, -8.94, -8.94, -8.94, 5.21, 5.21, 5.6, 5.6, 5.6, 5.94, 5.94, 5.94, 5.73, 5.73, 5.73, 5.81, 5.81, 5.81, 5.81, 5.81, 5.36, 5.26, 5.26, 5.26, 4.98, 4.98, 4.98, 4.98, 4.6, 4.6, 4.6, 4.6, 4.6, 4.19, 4.19, 4.54, 4.11, 4.11, 3.79, 3.79, 3.43, 3.43, 3.43, 3.43, 3.12, 3.12, 3.12, 3.12, 3.12, 3.12, 3.12, 3.12, 3.12, 3.12, 3.12, 2.44, 2.44, 2.44, 2.44, 2.44, 2.22, 1.76, 1.76, 2.0, 2.0, 2.48, 2.23, 2.48, 2.86, 2.86, 3.15, 2.0, 0.0, -1.88, -2.53, -1.58, -1.26, -1.6, -0.95, -0.95, -0.95, -0.63, 1.34, -1.58, -1.9, 0.0, 1.98, 5.75, 9.89, 11.6, 8.85, 6.95, 8.49, 5.81, 3.39, 2.0, -1.95, -1.67, -2.06, -8.05, -8.05, -8.05, 5.6, 5.6, 5.6, 5.6, 5.94, 5.94, 5.94, 5.94, 6.17, 6.17, 5.73, 5.81, 5.81, 5.81, 5.81, 5.81, 5.81, 5.29, 5.29, 5.26, 4.98, 4.98, 4.98, 4.98, 4.6, 4.6, 4.6, 4.6, 4.19, 4.19, 4.19, 4.19, 4.11, 3.79, 3.79, 3.79, 3.43, 3.43, 3.43, 3.43, 3.12, 3.12, 3.12, 3.38, 3.38, 3.38, 3.12, 3.12, 3.12, 3.12, 3.12, 2.44, 2.44, 2.44, 2.44, 2.44, 2.44, 1.76, 1.76, 1.76, 1.76, 2.0, 2.48, 2.48, 2.86, 2.86, 3.15, 2.86, 0.66, -0.76, -2.21, -1.58, -1.26, -2.68, -1.34, -1.2, -1.2, -0.89, 1.34, 0.0, -1.2, 0.0, 1.6, 4.89, 9.89, 12.89, 11.99, 7.9, 7.44, 7.2, 3.6, 2.98, 2.26, 0.0, 0.0, 4.74, 4.74, 4.74, 5.6, 5.6, 5.6, 5.6, 5.94, 5.94, 5.94, 6.17, 6.17, 6.17, 5.81, 5.81, 5.81, 5.81, 5.81, 5.81, 5.81, 5.29, 5.29, 5.29, 5.09, 4.98, 4.98, 4.98, 4.6, 4.6, 4.6, 4.6, 4.19, 4.19, 4.19, 4.19, 3.79, 3.79, 3.79, 3.43, 3.43, 3.43, 3.43, 3.12, 3.12, 3.12, 3.38, 3.38, 3.38, 3.38, 3.08, 2.84, 2.84, 2.84, 3.12, 2.66, 2.44, 2.44, 2.44, 2.44, 2.44, 1.76, 1.76, 1.76, 1.76, 1.76, 2.22, 2.48, 2.48, 2.86, 2.86, 2.86, 2.48, 0.0, -1.2, -1.9, -2.54, -2.68, -1.34, -1.34, -1.2, -1.34, -1.34, 0.0, 0.0, 0.0, 1.8, 4.43, 8.4, 11.71, 12.89, 11.2, 9.2, 8.43, 7.47, 4.4, 3.16, 4.74, 5.01, 5.64, 5.64, 5.64, 5.6, 5.6, 5.6, 5.6, 5.94, 5.94, 5.94, 6.17, 6.17, 6.17, 5.81, 5.81, 5.81, 5.81, 5.81, 5.81, 5.81, 5.29, 5.29, 5.29, 5.09, 4.98, 4.98, 4.98, 4.6, 4.6, 4.6, 4.6, 4.19, 4.19, 4.19, 4.19, 3.79, 3.79, 3.79, 3.43, 3.43, 3.43, 3.43, 3.12, 3.12, 3.12, 3.38, 3.38, 3.38, 3.38, 3.08, 2.84, 2.84, 2.84, 3.12, 2.66, 2.44, 2.44, 2.44, 2.44, 2.44, 1.76, 1.76, 1.76, 1.76, 1.76, 2.22, 2.48, 2.48, 2.86, 2.86, 2.86, 2.48, 0.0, -1.2, -1.9, -2.54, -2.68, -1.34, -1.34, -0.89, -1.34, -1.34, 0.0, 0.0, 0.0, 1.49, 3.91, 7.07, 10.32, 12.14, 12.86, 12.39, 11.95, 11.95, 10.14, 7.06, 6.58, 5.4, 4.85, 4.85, 4.85]}, {"header": {"dx": 0.06612293990616946, "dy": 0.0552356325346848, "nx": 98, "ny": 59, "la1": 35.046912555036876, "la2": 31.78801023549047, "lo1": -121.43107172385933, "lo2": -114.95102361305473, "refTime": "2026042012", "parameterCategory": 1, "parameterNumber": 3}, "data": [4.8, 4.77, 4.77, 4.34, 3.88, 4.0, 4.07, 3.79, 3.79, 3.43, 3.12, 3.12, 1.88, 1.88, 1.4, 1.88, 1.88, 2.21, 2.86, 3.74, 3.97, 4.47, 4.47, 3.58, 4.02, 5.09, 6.51, 7.21, 7.74, 8.91, 4.46, -0.0, 0.0, 0.0, 0.0, 0.0, 0.0, 0.0, 2.53, 6.94, 7.6, 6.58, 5.58, 2.4, 0.0, 0.0, 0.0, 0.0, 0.94, 2.09, 3.97, 3.72, 3.11, 2.88, 2.6, 2.8, 3.45, 3.68, 3.45, 2.32, 1.14, 0.0, -1.55, -2.23, -2.15, -2.3, -2.47, -2.26, -1.52, -0.75, -0.89, -1.09, 0.0, 1.4, 2.54, 3.77, 2.26, 1.4, 0.0, 0.0, 2.95, 4.47, 3.6, 2.23, 4.0, 4.47, 3.2, 3.39, 1.41, -0.88, -3.22, -5.06, -5.84, -4.74, -3.91, -2.16, -2.6, -3.22, 4.89, 4.88, 4.44, 4.34, 4.11, 3.88, 4.07, 3.79, 3.79, 3.48, 3.15, 2.53, 2.86, 2.5, 1.9, 1.9, 1.88, 2.21, 2.86, 3.6, 3.74, 4.41, 6.71, 7.5, 5.36, 3.58, 1.6, 3.58, 6.8, 7.81, 6.08, -0.0, -0.0, 0.0, 0.0, 0.0, 0.0, 0.0, 1.98, 8.06, 9.54, 7.44, 3.4, 0.0, 0.0, -0.89, 0.0, 0.0, 1.96, 2.82, 2.82, 2.99, 2.67, 2.35, 1.6, 2.16, 3.22, 3.2, 2.82, 2.64, 0.96, 0.0, 0.0, -0.85, -1.4, -1.49, -1.84, -1.73, -0.94, -0.82, 0.0, 0.0, 0.0, 0.0, 1.4, 0.89, 1.49, 1.4, 0.0, 0.0, 2.95, 4.47, 3.6, 2.23, 4.0, 4.47, 3.2, 3.39, 1.41, -0.88, -3.22, -5.06, -5.84, -4.74, -3.91, -2.16, -2.6, -3.22, 4.89, 4.88, 4.44, 4.44, 3.87, 3.7, 3.78, 3.79, 3.79, 3.79, 3.15, 3.48, 2.5, 2.5, 2.5, 2.5, 1.88, 1.88, 2.5, 2.86, 3.6, 3.45, 3.95, 5.36, 7.94, 5.31, 3.13, 4.09, 6.4, 7.4, 8.22, 5.2, 4.4, 5.36, 0.0, 0.0, 0.0, 0.0, 0.0, 0.0, 5.69, 1.08, 0.0, 0.0, 0.0, 0.0, 0.0, 0.0, 0.89, 1.84, 1.96, 2.21, 1.05, 1.07, 0.88, 2.2, 2.76, 2.8, 2.82, 1.63, 1.3, 0.66, 0.0, 0.0, 0.0, 0.0, 0.0, 0.0, 0.0, 0.0, 0.74, 0.82, 0.0, -1.07, -1.41, -1.84, -1.49, 0.0, 0.0, 0.0, 0.0, 4.47, 2.0, 0.79, 1.08, 4.47, 3.6, 2.53, 0.0, -1.7, -4.5, -6.01, -6.79, -5.84, -5.06, -4.11, -2.2, -2.4, 4.89, 4.88, 4.44, 4.44, 3.98, 3.98, 3.6, 3.78, 3.43, 3.12, 3.12, 3.12, 2.21, 2.5, 2.5, 2.15, 2.15, 1.9, 2.5, 3.07, 3.6, 3.74, 3.32, 3.82, 4.47, 5.36, 5.16, 5.94, 7.6, 8.22, 6.57, 5.2, 5.73, 7.15, 7.2, 4.71, 3.8, 0.0, -2.06, 0.0, 1.19, 1.33, 0.66, 0.76, 0.0, 0.0, 0.0, 0.0, 0.0, 0.0, 0.0, 0.0, 0.0, 0.0, 0.88, 1.8, 0.79, 0.81, 0.82, 0.82, 0.7, 0.63, 0.0, 0.0, 0.0, 1.08, 1.14, 1.63, 2.06, 2.12, 2.28, 0.72, -0.81, -3.55, -3.78, -4.43, -5.21, -4.58, -1.84, -2.83, -4.92, -0.0, -0.0, -0.0, -0.0, -0.0, 0.0, 0.0, -2.26, -4.56, -5.29, -6.32, -6.44, -6.18, -3.79, -2.68, -0.96, -2.16, 4.92, 4.47, 4.44, 4.44, 3.98, 3.98, 3.53, 3.6, 3.48, 3.43, 3.12, 3.08, 1.84, 1.88, 1.9, 1.58, 1.9, 2.15, 2.21, 3.14, 3.45, 4.24, 4.41, 4.41, 4.73, 7.5, 9.83, 9.89, 8.91, 7.6, 4.0, 3.84, 5.93, 6.14, 3.58, 2.3, 2.49, 1.4, 0.0, 0.0, 3.72, 3.14, 3.48, 2.73, 1.41, 0.96, 0.0, -0.88, -0.96, 0.0, 0.0, -1.14, -1.18, 0.0, 0.88, 0.59, 0.0, 0.0, 0.73, 0.7, 0.0, 0.0, 0.0, 0.7, 0.87, 0.0, 0.0, 0.0, 1.72, 3.09, 3.7, 3.36, 1.05, -2.32, -3.74, -5.44, -6.7, -6.31, -3.96, -8.94, -2.53, -1.9, -0.7, -0.63, -1.66, -3.6, -3.2, -3.63, -5.36, -6.59, -5.63, -4.42, -5.06, -3.49, -3.35, -1.55, -0.88, -1.72, 4.92, 4.47, 4.47, 4.47, 4.02, 4.02, 3.58, 3.53, 3.32, 3.22, 3.07, 3.43, 2.15, 1.88, 1.2, 1.0, 1.24, 1.24, 1.61, 1.84, 2.51, 3.35, 4.24, 6.61, 8.48, 8.91, 9.39, 9.7, 8.3, 7.06, 4.02, 3.83, 3.68, 3.72, 2.53, 0.76, 0.66, 0.72, 0.0, 3.58, 3.2, 6.58, 7.37, 6.06, 4.11, 3.16, 1.84, 0.0, -1.99, -1.98, -1.18, -1.18, -1.03, 0.0, 0.0, 0.0, 0.0, 0.0, 0.0, 0.0, 0.0, 0.0, 0.7, 1.49, 1.84, 2.12, 0.0, -1.41, 0.87, 2.98, 3.69, 3.91, 4.22, 2.6, -4.8, -4.98, -6.6, -6.01, -1.75, -0.0, -2.51, -3.39, -3.45, -2.84, -4.0, -5.32, -6.65, -7.58, -7.74, -6.95, -5.15, -4.68, -4.43, -4.47, -3.48, -2.73, -1.6, -1.84, 4.92, 4.47, 4.47, 4.02, 4.02, 4.02, 3.58, 3.58, 3.13, 3.07, 3.2, 3.45, 2.8, 2.5, 1.9, 1.2, 0.54, 0.85, 1.4, 1.13, 1.88, 1.88, 2.53, 3.16, 4.29, 4.46, 4.24, 3.58, 3.82, 4.66, 5.81, 5.75, 6.9, 5.95, 0.0, 0.0, 0.0, 0.88, 2.26, 3.58, 1.74, 3.39, 4.0, 6.01, 7.27, 7.06, 6.06, 3.16, 0.0, -2.4, -1.63, -1.03, -1.14, -1.55, -2.73, -1.99, -0.88, -1.8, -1.66, -0.66, 0.0, 0.0, 1.6, 3.22, 3.6, 4.98, 4.6, -5.2, -1.4, 0.66, 0.67, 0.7, 1.8, 3.48, 0.0, -4.11, -3.79, -2.84, -0.79, -1.7, -4.85, -4.92, -6.71, -7.92, -9.81, -10.28, -10.7, -9.75, -7.76, -6.55, -6.44, -7.28, -4.24, -0.0, -5.2, -2.95, -2.6, -2.82, 4.47, 4.47, 4.47, 4.02, 4.02, 4.02, 3.58, 3.58, 3.13, 3.13, 2.68, 3.07, 2.17, 2.68, 2.12, 1.9, 1.24, 1.4, 2.53, 3.13, 2.6, 2.68, 2.21, 1.16, -0.0, -0.0, -1.4, -1.26, 0.0, 4.47, 7.6, 8.05, 6.71, 4.02, 0.0, -1.58, -1.24, 0.0, 1.55, 3.35, -0.0, -0.0, 0.0, 1.0, 1.98, 6.44, 9.3, 10.12, 7.64, 5.06, 0.0, -1.3, 0.0, -4.43, -4.4, -3.16, -0.99, -1.74, -2.48, -1.16, 0.0, 0.0, 0.87, 2.16, 3.2, 4.26, 4.83, 0.0, -4.11, -3.91, -1.6, -1.47, -1.7, -2.12, -6.71, -5.81, -3.39, -2.53, -2.0, -2.82, -5.18, -8.24, -8.91, -9.83, -12.07, -12.52, -11.62, -9.76, -8.06, -5.93, -7.76, -6.2, -1.55, -2.16, -5.81, -3.79, -3.72, -2.64, 4.47, 4.47, 4.47, 4.02, 4.02, 4.02, 3.58, 3.58, 3.13, 3.13, 3.13, 2.63, 1.6, 2.24, 2.24, 2.24, 2.4, 2.21, 2.8, 2.54, 2.8, 3.32, 2.53, 1.33, -0.0, -0.65, -0.8, -0.8, -0.0, 5.6, 2.84, 2.53, 0.0, 0.0, -1.0, -1.86, -2.23, -1.49, 0.0, 1.9, -0.0, -0.8, -0.6, -0.63, 0.0, 2.24, 4.77, 7.68, 9.77, 8.85, 6.17, 0.0, -0.0, -3.0, -4.11, -3.48, 0.0, 0.0, -3.48, -0.85, -0.71, 0.0, 0.0, 0.0, 0.0, 0.0, 1.52, 0.0, -3.72, -5.95, -4.11, -3.64, -3.97, -5.72, -6.26, -2.21, -1.9, -2.54, -2.23, -1.84, -2.17, -6.7, -7.21, -7.71, -8.91, -9.83, -9.79, -8.38, -5.36, -5.36, -5.2, -2.48, -1.94, -3.16, -4.92, -2.95, -3.72, -3.22, 4.47, 4.47, 4.02, 4.02, 4.02, 3.58, 3.58, 3.58, 3.13, 3.13, 3.13, 3.04, 3.82, 3.16, 0.0, 0.0, 0.0, -0.0, -0.0, 2.21, 1.74, 1.49, 1.49, 0.76, -0.0, -0.65, -0.0, -0.0, -0.0, -0.0, -2.21, -1.58, -1.79, -1.79, -2.24, -0.95, -1.24, -1.58, 0.0, 0.0, -1.9, -1.24, -1.24, -1.24, -0.99, -0.0, 0.0, 1.98, 4.22, 6.71, 8.59, 6.07, -0.0, -0.65, -1.74, -0.85, -0.0, -0.0, 0.0, 2.6, 6.2, 6.45, 3.39, 0.0, -2.99, -2.0, -2.31, -1.33, -2.2, -4.54, -4.46, -4.43, -4.74, -5.37, -4.47, -1.9, -2.53, -2.98, -4.02, 0.0, 0.0, -5.37, -6.32, -4.46, -3.38, -2.73, -3.48, -3.16, 2.21, 2.68, -0.0, -2.79, -3.84, -4.0, -3.6, -1.55, -2.16, -2.99, 4.47, 4.47, 4.02, 4.02, 4.02, 3.58, 3.58, 3.58, 3.58, 3.58, 3.58, 3.47, 3.82, 2.0, -0.0, -3.58, -4.47, -6.71, 0.0, 7.15, -0.0, -0.0, -0.0, -0.0, -0.0, -0.0, -0.0, -0.0, -0.0, -1.2, -1.9, -1.26, -0.0, -0.0, -1.26, -1.34, -0.95, -0.89, -1.6, -2.6, -2.98, -1.49, -0.57, -1.4, -1.4, -0.0, 2.68, 2.21, 3.79, 5.2, 9.33, 13.41, 14.3, 12.07, 9.83, 9.21, 4.46, -0.0, 0.0, 12.71, 13.28, 12.89, 9.77, 4.32, 0.0, -2.4, -3.09, -2.99, -2.2, -2.86, -3.45, -4.46, -3.48, -3.16, -3.82, -3.58, -3.04, -2.53, -1.6, -0.0, -1.4, -4.92, -8.06, -6.14, -2.17, 0.0, 0.71, 0.69, 0.78, 0.0, 0.0, -3.04, -4.47, -4.02, -2.8, 0.0, 0.0, -1.55, 4.47, 4.47, 4.02, 4.02, 4.02, 4.02, 3.58, 3.58, 3.58, 3.58, 3.58, 4.02, 3.82, 2.0, -0.0, -5.36, -4.8, -3.79, 0.0, 1.84, 1.7, 0.0, 0.0, 0.0, 0.0, 0.0, 0.0, 0.0, 0.0, -0.0, -0.8, -0.95, -0.0, -0.0, -0.0, -0.63, -0.63, -0.6, -1.61, -1.88, -2.23, -0.0, -0.0, -0.0, -0.0, 1.7, 3.07, 4.02, 4.85, 8.6, 13.19, 15.6, 17.43, 17.88, 17.38, 16.35, 14.66, 11.18, -0.0, 11.95, 12.96, 11.64, 10.09, 8.38, 10.12, 11.12, 10.18, 9.11, 7.6, 0.0, -2.53, -2.53, -2.51, -2.15, -1.2, -1.6, -1.88, -2.21, -2.68, -0.65, -1.16, -2.15, -6.36, -5.9, -1.69, 0.0, 0.0, 0.0, 0.0, 0.0, -1.84, -1.8, -1.88, -1.74, -2.53, 0.0, 4.92, 0.0, 4.47, 4.47, 4.02, 4.02, 4.02, 4.02, 4.02, 3.58, 3.58, 3.58, 4.02, 4.02, 4.47, 4.0, -0.0, 0.0, -5.36, -2.6, 0.0, 0.0, 0.0, 0.0, 0.0, 0.0, 0.0, 0.0, 0.0, 0.0, 1.55, 4.02, -0.0, -0.0, -0.0, -0.0, -0.0, -0.0, -0.0, -0.0, -1.33, -1.33, -0.0, -0.0, 1.4, 1.58, 0.95, 2.23, 3.22, 5.75, 8.3, 7.67, 7.28, 9.09, 9.6, 9.11, 9.39, 8.85, 11.03, 11.75, 9.6, 8.91, 9.79, 10.56, 9.75, 11.18, 13.36, 12.63, 13.62, 13.83, 11.13, 9.11, 8.06, 4.0, 0.0, 0.0, -0.65, -1.33, -1.84, -1.88, -1.98, -3.13, -1.2, -1.88, -3.82, -5.81, -5.63, -2.95, -2.31, -2.76, -1.36, -0.8, -1.84, -2.3, -1.84, -1.84, -1.84, -1.41, 4.47, -0.0, 4.47, 4.47, 4.47, 4.02, 4.02, 4.02, 4.02, 4.02, 4.02, 4.02, 4.02, 4.02, 4.47, 4.47, 4.92, 0.0, 0.0, -4.11, 0.0, 0.0, 0.0, 0.0, 0.0, 0.0, 0.0, 0.0, 0.0, 0.0, 0.0, 0.0, 0.0, -0.0, -0.0, -1.0, -0.71, -0.0, -0.0, -0.0, -0.0, -0.61, -0.0, -0.0, -0.0, -0.0, 0.0, 3.16, 1.61, 1.6, 1.8, 2.68, 2.32, 1.4, -0.0, -0.0, -0.0, 0.0, 2.4, 6.63, 9.84, 7.15, 6.57, 8.94, 11.18, 12.45, 11.33, 10.85, 11.03, 9.81, 9.6, 8.0, 9.24, 9.33, 7.52, 5.94, 4.29, 0.0, -2.21, -2.21, -2.95, -3.47, -4.02, -2.6, -3.53, -5.78, -6.2, -6.01, -4.6, -3.32, -2.67, -1.75, -1.58, -1.7, -2.41, -2.41, -2.79, -1.8, 0.0, -0.0, 4.92, 4.47, 4.47, 4.47, 4.02, 4.02, 4.02, 4.02, 4.02, 4.02, 4.02, 4.47, 4.47, 4.47, 4.92, 4.92, 0.0, 0.0, 0.0, 0.0, 0.0, 0.0, 0.0, 0.0, 0.0, 0.0, 0.0, 0.0, -1.03, -1.14, -2.6, -3.48, -1.4, -2.53, -1.6, -0.0, -0.0, -0.0, -0.0, -0.0, -0.0, -0.0, -0.0, -0.0, 0.0, 0.0, 2.53, 1.0, 1.13, 0.98, -0.0, -1.27, -1.9, -1.79, -1.34, -1.34, -2.68, 0.99, 4.02, 7.07, 3.32, 2.84, 3.6, 3.2, 4.15, 5.59, 4.22, 3.58, 3.2, 4.24, 8.01, 10.16, 9.06, 7.6, 6.87, 4.75, 1.19, -4.11, -4.43, -4.29, -3.97, -4.8, -4.47, -5.32, -5.32, -5.16, -5.15, -3.8, -3.4, -2.33, -1.84, -1.73, -3.79, -3.58, -2.68, -2.53, -3.13, -3.13, 4.92, 4.47, 4.47, 4.47, 4.47, 4.02, 4.02, 4.02, 4.02, 4.02, 4.02, 4.47, 4.47, 4.92, 4.4, 4.4, 3.79, 0.0, 0.0, 0.0, 0.0, 0.0, 0.0, 0.0, 0.0, 0.0, 0.0, -1.01, -0.95, -1.98, -2.8, -5.2, -3.79, -3.16, -0.0, -0.0, -0.0, 1.2, 1.8, -0.0, -0.0, -0.0, -0.0, -0.0, 0.0, 3.58, 2.53, 2.21, 1.2, 1.2, -0.0, -0.8, -0.45, 0.0, 0.0, 0.0, 0.0, -0.89, 0.76, 2.15, 2.68, -0.0, -0.0, -0.0, 0.8, 0.85, 0.57, 2.68, 4.47, 7.6, 8.05, 7.28, 6.44, 5.49, 4.87, 4.46, 4.71, 3.49, 0.0, -2.54, -2.06, -1.95, -5.94, -4.47, -4.47, -6.26, -4.8, -3.79, -3.79, -3.45, -2.99, -4.11, -3.58, -2.76, -3.22, -3.16, -2.8, -2.8, 4.87, 4.92, 4.47, 4.47, 4.47, 4.47, 4.02, 4.02, 4.02, 4.02, 4.02, 4.47, 4.24, 4.66, 4.4, 4.4, 2.4, 2.4, 0.0, 0.0, 0.0, 0.0, 0.0, 0.0, 0.0, 0.0, -1.07, -1.01, -1.96, -2.12, -2.49, -4.43, -5.81, -3.79, -1.0, -0.0, -0.0, -0.0, -0.0, -0.0, -2.21, -1.0, -0.0, -0.0, -0.0, 0.0, -0.0, -0.0, 0.0, 3.58, 3.58, 0.0, 0.0, 0.0, 0.0, 0.0, 0.0, 0.0, 0.0, 0.0, 0.0, 0.0, 0.0, 0.0, 3.13, 0.0, 0.0, 2.54, 7.06, 8.05, 6.17, 4.37, 3.43, 2.88, 2.47, 2.82, 5.46, 7.85, 6.7, 5.52, 5.06, 4.4, -4.0, -7.2, -4.4, -0.99, -4.92, -3.95, -4.15, -3.63, -3.6, -4.47, -4.57, -3.84, -4.47, -3.93, -3.39, -3.39, 4.87, 4.92, 4.47, 4.47, 4.47, 4.47, 4.47, 4.02, 4.02, 4.02, 4.47, 4.34, 4.24, 4.24, 4.4, 4.4, 3.79, 2.4, 1.7, 0.0, 0.0, 0.0, 0.0, 0.0, 0.0, 0.0, -1.07, -1.96, -2.26, -2.26, -3.45, -4.02, -5.21, -5.81, -4.4, -1.58, -2.0, -1.9, -2.8, -2.8, -2.54, -1.9, -0.57, -0.6, -0.0, -0.0, -0.0, -0.0, 0.0, 4.02, 4.47, 4.47, 4.47, 0.0, 0.0, 0.0, 0.0, 4.47, 5.36, 0.0, 0.0, 0.0, 0.0, 4.02, 4.02, 1.79, 0.0, 1.58, 2.15, 2.68, 2.15, 1.35, 0.76, 0.67, 0.7, 1.41, 3.97, 6.24, 7.24, 7.15, 6.64, 6.63, 4.71, -4.46, -1.73, 0.0, -3.16, -3.58, -4.85, -5.21, -4.74, -5.03, -5.37, -4.52, -4.89, -3.93, -4.34, -4.34, 4.87, 4.87, 4.92, 4.47, 4.47, 4.47, 4.47, 4.47, 4.47, 4.47, 4.34, 4.34, 4.24, 4.24, 4.4, 2.21, 2.4, 2.2, 1.7, 1.41, 0.0, 0.0, 0.0, 0.0, 0.0, 0.0, -0.89, -1.08, -2.0, -2.8, -3.45, -3.45, -4.02, -5.6, -6.07, -5.2, -5.64, -6.26, -3.82, -3.39, -2.8, -2.5, -1.49, -1.4, -0.0, -0.0, -0.0, -0.0, -0.0, 4.47, 4.47, 4.47, 4.47, 4.47, 4.92, 4.92, 0.0, 0.0, 0.0, 0.0, 0.0, 0.0, 0.0, 2.24, 2.21, -0.0, 0.0, 0.0, -0.0, -3.13, -0.98, 0.0, 0.0, 0.0, 0.0, -0.66, -0.79, 0.0, 1.26, 3.7, 4.75, 3.91, 0.0, -4.74, -4.74, -4.11, -4.09, -4.4, -5.73, -5.59, -3.83, -5.24, -5.95, -4.93, -4.8, -4.22, -4.57, -4.57, 4.87, 4.85, 4.92, 4.47, 4.47, 4.47, 4.47, 4.47, 4.47, 4.34, 4.34, 4.34, 4.24, 4.66, 4.4, 4.4, 2.2, 2.2, 1.4, 1.13, 0.0, 0.0, 0.0, -1.27, -1.08, -0.96, -0.79, -1.84, -2.16, -2.76, -2.76, -2.99, -2.99, -4.11, -4.65, -4.65, -5.01, -4.43, -5.21, -5.81, -4.57, -3.58, -2.0, -0.98, -0.98, -0.0, -0.0, -0.0, -0.0, 4.47, 4.47, 4.47, 4.47, 4.92, 2.68, 3.13, 4.43, 0.0, 0.0, 0.0, 0.0, 0.0, 0.0, 0.0, 1.9, -0.0, 0.0, 0.0, 0.0, 0.0, 0.0, 0.0, -0.84, -0.89, -2.07, -5.54, -6.7, -7.07, -2.69, 1.32, 1.32, 1.4, 0.0, -3.2, -5.21, -5.2, -3.79, -2.2, -4.24, -4.85, -4.47, -4.4, -6.32, -5.16, -5.2, -5.16, -4.66, -4.66, 4.85, 4.85, 4.85, 4.47, 4.47, 4.47, 4.47, 4.47, 4.34, 4.34, 4.34, 4.24, 4.24, 4.66, 4.4, 4.4, 2.2, 2.2, 0.0, 0.0, 0.0, 0.0, -1.3, -2.16, -2.12, -1.84, -1.98, -1.84, -1.99, -1.83, -2.95, -2.95, -2.95, -3.48, -3.48, -3.79, -3.79, -2.99, -2.16, -3.22, -5.09, -5.36, -5.36, 0.0, 0.0, 0.0, -0.0, -0.0, 3.48, 0.0, 4.47, 4.02, 4.47, 4.47, 4.92, 3.13, 3.16, 4.11, 0.0, -4.02, 0.0, -0.0, -0.0, -0.0, -0.0, -0.0, -0.0, 0.0, 0.0, 2.76, 4.0, 2.44, 0.84, -0.95, -4.95, -8.94, -11.36, -11.21, -9.2, -4.83, 0.0, 1.4, 1.4, 1.49, 0.0, -2.2, 0.0, 2.2, 1.84, -4.0, -4.41, -5.51, -6.0, -5.2, -6.23, -5.78, -4.87, -4.87, 4.85, 4.85, 4.85, 4.85, 4.47, 4.47, 4.47, 4.38, 4.34, 4.34, 4.34, 4.24, 4.24, 4.66, 4.4, 3.48, 2.4, 2.4, 0.0, 0.0, 0.0, 0.0, 0.0, -1.14, -1.23, -1.03, -1.03, -0.96, -0.88, -1.83, -1.83, -2.3, -2.68, -2.68, -2.79, -2.79, -3.07, -3.35, -2.76, -2.99, -2.16, -2.6, -2.6, -1.41, 0.0, 0.0, 0.0, 4.47, 0.0, 0.0, 0.0, 0.0, 0.0, 4.47, 4.47, 4.92, 4.02, 5.94, 4.11, -0.0, -0.0, -0.0, -0.0, -0.0, -0.0, -0.0, -0.0, -0.0, 0.0, 2.6, 4.65, 7.2, 8.87, 4.74, -6.55, -10.43, -12.45, -13.05, -11.99, -9.89, -4.46, 1.4, 3.91, 5.37, 5.37, 3.72, 2.0, 1.8, 0.0, -2.82, -5.21, -5.6, -5.75, -5.31, -4.92, -4.92, -3.98, -3.98, 4.85, 4.85, 4.85, 4.85, 4.38, 4.38, 4.38, 4.34, 4.34, 4.34, 4.34, 4.24, 4.24, 4.66, 3.48, 3.48, 2.4, 2.4, 0.0, 0.0, 0.0, 0.0, 0.0, -1.14, -1.14, -0.96, -1.03, -0.96, -0.96, -0.88, -1.99, -1.99, -2.76, -2.76, -2.53, -2.3, -3.07, -3.07, -3.35, -2.98, -2.6, -2.6, -1.84, -0.96, 0.0, 0.0, 0.0, 0.0, 0.0, 0.0, 0.0, 0.0, 0.0, -0.0, 0.0, 4.47, 2.4, 3.16, 3.16, 0.85, -0.0, -0.0, -0.0, -0.0, 1.8, 2.84, 2.21, -0.0, -1.34, 0.0, 2.6, 4.24, 6.28, -2.53, -3.13, -8.0, -10.6, -12.1, -13.44, -12.86, -9.64, -5.37, 2.8, 5.21, 4.74, 3.48, 2.73, 1.41, 0.0, 0.0, -4.43, -4.98, -4.84, -4.92, -3.98, -4.3, -3.82, -3.82, 5.29, 5.29, 4.85, 4.85, 4.82, 4.38, 4.38, 4.34, 4.34, 4.34, 4.24, 4.24, 4.09, 4.09, 3.48, 3.79, 2.4, 2.4, 1.84, 0.0, 0.0, 0.0, 0.0, 0.0, -1.23, -1.23, -1.03, -0.96, -0.96, -1.84, -1.84, -1.84, -2.16, -2.99, -2.99, -2.99, -2.76, -3.35, -3.07, -3.07, -2.4, -2.4, -1.7, -1.7, -0.81, 0.0, 0.0, 0.0, 0.0, 0.0, 0.0, 0.0, 0.0, -0.0, -0.0, -0.0, 1.58, 0.85, -0.0, -0.0, -0.0, -1.9, -2.4, -0.0, 2.84, 2.53, 1.9, 0.0, 0.0, 0.0, 1.2, 0.0, 2.04, 1.52, 0.0, -3.58, -7.63, -9.86, -11.5, -12.14, -11.62, -9.39, -7.6, 0.0, 0.0, 0.0, 0.0, 0.0, 0.0, 3.48, 0.0, -4.4, -4.47, -2.84, -3.32, -3.87, -3.6, -3.6, 5.29, 5.29, 4.85, 4.82, 4.82, 4.82, 4.38, 4.34, 4.77, 4.77, 4.66, 4.66, 4.09, 4.09, 3.48, 3.79, 2.4, 2.4, 1.84, 0.0, 0.0, 0.0, 0.0, 0.0, 0.0, -1.23, -1.03, -1.03, -1.98, -1.98, -1.98, -1.98, -1.98, -2.6, -2.6, -2.8, -2.8, -2.99, -2.99, -2.76, -2.76, -2.76, -1.55, -1.55, -0.81, -0.96, -1.05, -1.3, -2.4, -4.11, -5.36, -5.81, 0.0, -0.0, -0.0, -0.0, -0.0, -0.0, -0.0, -0.95, -2.68, -1.7, -2.68, -0.0, 2.84, 2.21, 2.4, 2.8, 2.24, 0.0, -2.68, -2.84, 0.0, 3.42, 4.48, 2.83, -1.88, -4.4, -6.28, -8.55, -11.03, -10.73, -9.39, -8.0, -3.79, -3.48, -3.48, 0.0, 4.02, 4.47, 4.92, 0.0, 2.2, 1.41, -2.23, -3.14, -2.51, -2.51, 5.09, 5.09, 5.26, 4.82, 4.82, 4.82, 4.82, 4.77, 4.77, 4.77, 4.66, 4.09, 4.09, 3.48, 3.48, 3.79, 2.4, 1.7, 1.84, 0.0, 0.0, 0.0, 0.0, 0.0, 0.0, -1.23, -1.23, -1.03, -1.98, -1.98, -1.98, -1.98, -1.98, -2.8, -2.8, -2.8, -2.8, -2.8, -2.99, -2.99, -2.99, -2.76, -1.99, -1.99, -1.83, -0.96, -1.3, -1.41, -1.84, -2.6, -5.2, -4.4, 0.0, -0.0, -0.0, -0.0, -0.0, 0.0, 0.0, -1.2, -2.24, -2.53, -1.9, 0.0, 2.4, 1.9, 2.4, 2.4, 1.26, 0.0, -2.68, -3.2, -0.95, 2.83, 6.08, 8.32, 8.22, -4.22, -4.09, -5.37, -8.38, -10.6, -10.73, -6.32, -0.0, 0.0, 0.0, 0.0, 4.24, 4.34, 3.58, 5.81, 4.4, 4.09, -0.0, -1.8, -2.15, -2.15, 4.98, 4.98, 5.26, 4.82, 4.82, 4.82, 4.82, 4.77, 4.77, 4.66, 4.66, 4.09, 4.09, 3.48, 3.79, 3.79, 2.4, 1.7, 1.84, 0.0, 0.0, 0.0, 0.0, 0.0, 0.0, -1.23, -1.23, -1.03, -1.98, -1.98, -1.98, -1.84, -2.8, -2.8, -2.8, -2.8, -2.8, -2.8, -2.6, -2.6, -2.99, -2.16, -1.99, -1.99, -1.99, -2.4, -1.3, -1.41, -1.84, -1.84, -2.6, -2.2, -3.16, 0.0, -0.0, -0.0, -0.0, -0.0, 0.0, -1.34, -1.79, -2.54, -2.53, 0.0, 3.58, 1.0, 1.58, 0.0, -0.0, -1.79, -3.13, -3.74, -3.35, 0.0, 4.26, 8.12, 9.45, 0.0, -3.32, -3.48, -6.32, -9.08, -10.73, 1.95, 1.52, -0.0, 0.0, 3.58, 3.82, 4.24, 3.13, 2.21, 5.36, 4.92, 3.48, -0.0, -4.0, -4.0, 4.98, 4.98, 4.98, 5.26, 4.82, 4.82, 4.82, 4.77, 4.77, 4.66, 4.09, 4.09, 4.09, 3.48, 3.79, 3.79, 2.98, 1.7, 1.84, 0.0, 0.0, 0.0, 0.0, 0.0, 0.0, 0.0, -1.14, -0.96, -0.96, -1.84, -1.84, -1.84, -2.6, -2.6, -2.6, -2.6, -2.8, -2.6, -2.6, -2.6, -2.99, -2.76, -1.99, -1.99, -2.4, -2.4, -2.4, -2.6, -3.22, -3.22, -3.79, -2.2, -2.0, 0.0, -3.13, -0.8, -0.0, -0.8, -0.8, -0.95, -1.2, -1.79, -2.23, -1.4, 0.0, 4.47, 0.0, -1.34, -1.79, -2.24, -2.68, -3.32, -3.72, -3.14, 0.0, 2.99, 5.37, 3.22, -2.98, -3.49, -3.22, -7.14, -10.04, 2.06, 1.25, -0.0, -0.0, 1.9, 2.97, 4.02, 3.58, 0.0, 0.0, 0.0, 0.0, 0.0, -3.79, -3.79, 4.98, 4.98, 4.98, 4.98, 4.82, 4.82, 4.82, 4.77, 4.77, 4.77, 4.09, 4.09, 4.09, 3.48, 3.79, 3.79, 2.98, 1.7, 1.84, 1.84, 0.0, 0.0, 0.0, 0.0, 0.0, 0.0, -1.14, -0.96, -0.96, -1.84, -1.84, -1.84, -2.6, -2.6, -2.6, -2.6, -2.6, -2.6, -2.6, -2.6, -2.99, -2.76, -2.53, -2.23, -1.13, -1.99, -1.99, -3.49, -3.22, -3.22, -2.98, -2.2, -2.0, -1.6, -2.21, -2.21, -0.8, -1.0, -1.24, -1.26, -1.2, -1.79, -1.9, -1.58, 0.0, 3.13, 2.68, -1.34, -2.68, -2.0, -2.24, -2.15, -3.07, -5.21, -7.4, -6.01, -1.01, 0.0, 0.0, -2.84, -2.79, -6.86, -8.3, -0.0, 1.98, 1.23, 1.11, 1.16, 1.0, 3.58, 0.0, 0.0, 0.0, 0.0, 0.0, 0.0, -2.4, -2.4, 4.98, 4.98, 4.98, 4.98, 4.57, 4.57, 4.57, 4.77, 4.77, 4.77, 4.09, 4.09, 4.46, 3.79, 3.79, 2.98, 2.98, 1.7, 1.84, 1.84, 0.0, 0.0, 0.0, 0.0, 0.0, 0.0, -1.14, -1.14, -0.96, -1.84, -1.84, -1.84, -2.6, -2.6, -2.6, -2.6, -2.6, -2.6, -2.6, -2.6, -2.76, -2.76, -2.76, -2.95, -2.95, -1.98, -2.2, -2.76, -2.95, -3.16, -2.48, -2.23, -1.8, -0.99, -1.2, -2.68, -1.88, -2.51, -1.61, -1.58, -1.7, -2.0, -2.0, -1.26, -0.0, 2.0, 2.68, 1.79, -0.0, -2.0, -2.24, -1.74, 0.0, -1.55, -6.95, -9.08, -7.27, -4.46, -2.12, -2.2, -3.22, -7.4, -9.17, -10.73, -0.0, 1.3, 1.36, -0.0, -0.0, -0.0, -0.0, 0.0, 0.0, 0.0, 0.0, 0.0, 0.0, 0.0, 4.98, 4.98, 4.98, 4.98, 4.98, 4.57, 4.57, 4.4, 4.4, 4.4, 4.09, 4.09, 3.79, 3.79, 2.98, 2.98, 1.7, 1.7, 1.84, 1.84, 0.0, 0.0, 0.0, 0.0, 0.0, 0.0, -1.14, -1.14, -0.96, -0.96, -1.84, -1.84, -1.84, -2.6, -2.6, -2.6, -2.6, -3.22, -3.22, -3.22, -3.35, -2.76, -2.76, -2.95, -3.48, -3.16, -3.16, -3.35, -3.48, -3.16, -2.84, -1.98, -2.21, -1.74, -0.85, -2.4, -1.86, -2.53, -2.84, -1.86, -1.7, -2.24, -1.6, -0.71, -0.0, 1.2, 1.6, 1.58, 0.0, -0.95, -2.17, -2.12, 0.0, 2.83, 0.0, -4.92, -7.9, -7.27, -5.72, -5.31, -5.72, -5.81, -9.1, -9.62, -11.62, 1.04, 1.3, 0.71, 1.26, 1.6, 1.98, 2.6, 4.11, 5.36, 0.0, 0.0, 3.4, 3.4, 4.98, 4.98, 4.98, 4.98, 4.98, 4.57, 4.4, 4.4, 4.4, 4.4, 4.09, 4.09, 4.46, 3.79, 2.98, 2.98, 1.7, 1.7, 1.84, 1.84, 0.0, 0.0, 0.0, 0.0, 0.0, 0.0, -1.14, -1.05, -0.98, -0.88, -1.84, -1.84, -1.84, -2.6, -2.6, -2.6, -2.6, -3.22, -3.22, -2.98, -3.35, -3.35, -3.35, -3.35, -3.35, -3.35, -4.11, -3.79, -2.95, -3.48, -3.48, -3.16, -2.23, -2.21, -1.49, -1.9, -2.24, -2.4, -2.5, -2.5, -1.86, -1.58, -1.2, -0.0, 0.8, 1.2, 0.89, 0.0, 0.0, -0.71, -1.58, -1.34, -0.63, 0.88, 4.48, 0.0, -3.72, -6.28, -7.68, -7.15, -5.52, -4.96, -4.22, -4.6, -3.82, 0.0, 2.54, 3.29, 3.3, 2.54, 2.11, 1.94, 2.2, 3.16, 6.71, 6.79, 7.37, 7.37, 4.6, 4.6, 4.6, 4.98, 4.98, 4.98, 4.4, 4.4, 4.4, 4.4, 4.09, 4.46, 4.46, 3.79, 2.98, 2.98, 1.7, 1.84, 1.84, 0.0, 0.0, 0.0, 0.0, 0.0, 0.0, 0.0, -1.14, -1.14, -1.14, -0.98, -1.7, -1.7, -1.7, -1.7, -2.4, -2.4, -2.4, -2.98, -2.98, -2.98, -3.35, -3.35, -3.35, -3.35, -3.35, -2.76, -2.99, -3.49, -3.49, -3.79, -3.79, -3.79, -3.48, -2.48, -1.98, -1.74, -1.74, -2.68, -1.9, -1.84, -2.48, -1.2, -0.0, -0.0, 1.26, 1.2, 1.34, 0.0, -0.63, -0.8, 0.0, 0.0, -1.79, -2.15, 0.0, 0.0, -1.05, -2.97, -2.2, 0.0, 0.0, 0.0, 0.0, 0.0, 0.0, 0.0, 0.0, 12.79, 6.98, 3.33, 2.88, 1.94, 1.23, 1.6, 3.16, 7.15, 7.15, 7.15, 4.6, 4.6, 4.6, 4.6, 4.6, 4.98, 4.8, 4.8, 4.4, 4.09, 4.09, 4.46, 4.46, 2.98, 2.98, 2.98, 1.7, 1.84, 1.84, 0.0, 0.0, 0.0, 0.0, 0.0, 0.0, 0.0, -1.14, -1.14, -1.14, -2.16, -1.99, -1.99, -1.99, -1.7, -2.4, -2.4, -2.4, -2.4, -2.98, -2.98, -3.35, -3.35, -3.35, -3.35, -3.35, -2.76, -2.76, -2.99, -2.99, -3.49, -3.49, -4.11, -3.79, -3.48, -3.16, -2.23, -2.23, -2.53, -1.9, -1.27, -2.23, -1.2, -0.0, -0.0, -0.0, -0.0, -0.0, -0.0, 0.0, -0.89, 0.0, 0.0, -1.6, -4.84, -4.92, -2.11, 0.0, 2.12, 1.8, 2.04, 1.67, 0.98, 0.0, 0.0, 0.0, 0.0, 1.01, 3.88, 11.62, 4.46, 2.44, 2.11, 1.35, 1.27, 1.66, 5.2, 6.58, 6.58, 4.6, 4.6, 4.6, 4.6, 4.6, 4.6, 4.29, 4.29, 4.29, 4.09, 4.46, 3.79, 2.98, 2.98, 2.98, 1.7, 1.7, 1.84, 1.84, 0.0, 0.0, 0.0, 0.0, 0.0, 0.0, -1.14, -1.14, -1.14, -1.14, -2.16, -1.99, -1.99, -2.76, -2.76, -2.76, -2.4, -2.4, -2.4, -2.98, -2.98, -3.35, -3.35, -3.35, -3.35, -3.35, -3.35, -2.76, -2.76, -2.99, -2.99, -3.49, -3.22, -3.79, -3.48, -3.16, -3.16, -3.16, -2.84, -3.39, -2.21, -1.6, -0.0, -0.0, -0.0, -0.0, -0.0, -0.0, -0.0, -0.0, -0.6, -0.0, 0.0, -0.65, -4.12, -5.3, -2.45, 1.95, 6.16, 5.99, 3.55, 0.86, 0.0, -1.28, -1.5, 0.0, 2.28, 3.47, 5.4, 8.67, 5.37, 2.47, 1.94, 2.2, 1.27, 1.41, 3.45, 6.13, 6.13, 4.98, 4.98, 4.6, 4.6, 4.6, 4.29, 4.29, 4.29, 4.29, 3.79, 3.79, 3.79, 2.98, 2.98, 2.98, 1.7, 1.84, 1.41, 0.0, 0.0, 0.0, 0.0, 0.0, 0.0, 0.0, -1.14, -1.14, -1.14, -1.14, -2.16, -1.99, -1.99, -2.76, -2.76, -2.76, -2.76, -2.4, -2.4, -2.98, -2.98, -3.35, -3.35, -3.35, -3.35, -3.35, -3.35, -3.35, -2.76, -2.99, -2.99, -2.99, -3.22, -3.22, -2.95, -2.68, -2.68, -2.68, -2.41, -2.53, -3.13, -2.97, -0.61, -0.0, -0.0, -0.0, -0.0, -0.0, -0.0, -0.0, -0.0, -0.0, 0.0, 0.0, 0.0, 0.0, -0.85, 0.0, 3.56, 3.8, 2.64, 0.93, 0.0, -1.32, 0.0, 4.96, 6.32, 5.1, 5.24, 5.75, 6.71, 2.76, 2.73, 2.07, 2.53, 3.68, 4.37, 5.37, 5.37, 4.54, 4.54, 4.98, 4.6, 4.6, 4.29, 4.29, 4.29, 4.29, 3.79, 3.79, 3.79, 2.98, 2.98, 2.98, 1.7, 1.41, 1.41, 0.0, 0.0, 0.0, 0.0, 0.0, 0.0, 0.0, -1.14, -1.14, -1.14, -2.16, -2.16, -1.99, -1.99, -2.76, -2.76, -2.76, -2.76, -2.76, -2.98, -2.98, -2.98, -2.98, -3.35, -3.35, -2.48, -2.76, -2.98, -2.98, -3.35, -3.63, -3.63, -2.99, -3.22, -2.95, -2.95, -2.68, -2.41, -2.68, -2.41, -1.88, -1.88, -2.97, -1.74, -0.0, -0.53, -0.0, -0.0, 0.57, 0.8, 0.6, -0.0, -0.0, -0.0, 2.0, 4.0, 3.53, 0.0, -1.72, -1.94, -1.91, -1.0, 0.0, 0.0, 0.0, 4.47, 4.47, 4.4, 3.84, 3.49, 3.16, 3.48, 4.47, 3.16, 2.51, 4.02, 4.14, 4.6, 5.59, 5.59, 4.54, 4.54, 4.54, 4.54, 4.29, 4.29, 4.29, 4.29, 3.79, 3.79, 3.79, 2.98, 2.98, 2.98, 1.7, 1.7, 1.3, 0.0, 0.0, 0.0, 0.0, 0.0, 0.0, 0.0, -1.41, -1.14, -1.14, -1.14, -2.16, -1.99, -1.99, -1.99, -2.76, -2.76, -2.76, -2.76, -3.35, -3.35, -3.35, -2.98, -3.35, -3.35, -3.35, -2.23, -3.35, -3.22, -2.98, -3.35, -3.35, -3.63, -3.63, -3.79, -3.48, -3.16, -2.84, -2.84, -2.84, -2.84, -2.15, -1.88, -2.15, -3.13, -0.0, -0.0, -0.0, -0.0, -0.0, -0.0, -0.0, -0.0, -0.0, -0.0, 2.24, 2.76, 5.35, 4.81, 0.76, -3.0, -6.59, -6.41, -4.66, -2.66, 0.0, 4.47, 3.13, 2.4, 3.14, 3.16, 3.15, 2.73, 2.3, 5.36, 5.06, 4.83, 4.37, 4.14, 3.4, 5.59, 4.54, 4.54, 4.54, 4.11, 3.79, 3.79, 3.79, 4.29, 3.79, 3.79, 3.79, 2.98, 2.98, 2.98, 1.7, 1.3, 1.3, 0.0, 0.0, 0.0, 0.0, 0.0, 0.0, 0.0, -1.41, -1.14, -1.14, -2.16, -2.16, -1.99, -1.99, -2.76, -2.76, -2.76, -2.76, -2.76, -3.35, -3.35, -3.35, -3.35, -3.35, -3.35, -3.35, -3.48, -2.84, -3.72, -3.72, -3.79, -3.35, -3.35, -3.79, -3.79, -3.48, -3.16, -2.84, -2.84, -2.84, -2.84, -2.15, -2.15, -1.84, -2.21, -2.4, -0.0, -0.0, -0.0, -0.0, -0.0, -0.0, -0.0, 0.0, 0.0, 0.0, 1.0, 4.14, 7.82, 7.24, 2.26, -2.4, -4.74, -4.46, -4.29, -2.8, 0.0, 2.8, 2.4, 2.79, 2.51, 2.48, 2.44, 2.4, 4.43, 4.74, 3.4, 2.66, 2.49, 2.8, 3.4, 4.54, 4.54, 4.54, 4.11, 4.11, 4.11, 3.79, 3.79, 3.22, 3.22, 3.22, 2.4, 2.4, 2.4, 1.3, 1.3, 1.3, 0.0, 0.0, 0.0, 0.0, 0.0, 0.0, -1.41, -1.41, -1.41, -1.14, -2.16, -2.16, -1.99, -1.99, -2.76, -2.76, -2.76, -2.76, -3.35, -3.35, -3.35, -3.35, -3.35, -3.79, -3.79, -3.79, -3.79, -4.46, -3.48, -3.79, -3.48, -3.84, -3.84, -3.48, -3.48, -3.16, -2.84, -2.84, -2.84, -2.84, -2.84, -2.53, -2.15, -1.84, -2.53, -3.13, -0.0, -0.0, -1.6, -1.0, -0.0, -0.0, -0.0, 0.0, 0.0, -1.34, -0.89, 1.2, 5.37, 7.15, 7.26, 1.54, -0.96, -1.9, 0.0, 0.88, 1.18, 1.98, 3.82, 3.2, 2.84, 2.79, 2.79, 3.07, 3.72, 2.0, 1.19, 1.83, 1.99, 1.83, 1.83, 4.54, 4.54, 4.11, 4.11, 4.11, 4.11, 4.11, 3.22, 3.22, 3.22, 2.4, 2.4, 2.4, 1.3, 1.3, 1.3, 0.0, 0.0, 0.0, 0.0, 0.0, 0.0, 0.0, -1.41, -1.41, -1.41, -2.16, -2.16, -2.16, -2.16, -2.76, -2.76, -2.76, -2.76, -2.76, -3.35, -3.35, -3.35, -3.35, -3.79, -3.79, -3.79, -3.79, -3.79, -4.11, -4.46, -3.79, -3.84, -3.49, -3.84, -3.49, -3.16, -2.84, -2.84, -2.53, -2.53, -2.53, -2.84, -2.53, -2.53, -2.23, -2.23, -2.8, -3.58, -2.21, -2.53, -0.0, -0.0, -0.0, -0.0, -0.0, -0.89, -2.24, -2.24, -0.89, 0.0, 1.32, 3.32, 3.25, 4.93, 5.7, 6.44, 5.72, 4.65, 4.6, 5.09, 4.02, 4.02, 4.34, 4.4, 4.4, 4.92, 1.08, 0.79, 1.66, 1.83, 1.83, 1.83, 4.11, 4.11, 3.63, 4.11, 4.11, 4.11, 4.11, 3.22, 3.22, 3.22, 2.4, 2.4, 2.4, 1.3, 1.3, 1.3, 0.0, 0.0, 0.0, 0.0, 0.0, 0.0, -1.41, -1.41, -1.41, -1.41, -2.16, -2.16, -2.16, -2.99, -2.76, -2.76, -2.76, -2.76, -3.35, -3.35, -3.35, -3.35, -3.79, -3.79, -3.79, -3.79, -3.79, -3.79, -4.11, -4.11, -3.79, -4.19, -4.19, -3.84, -3.84, -3.84, -3.14, -2.84, -2.53, -2.53, -2.53, -2.53, -2.84, -2.53, -2.23, -2.51, -2.86, -4.02, -2.53, -0.0, -0.0, -0.0, -0.0, -0.0, -0.0, -0.89, -2.68, -3.13, -2.6, -1.9, -0.81, 0.0, 3.12, 7.43, 10.11, 10.43, 9.54, 7.43, 11.62, 5.37, 3.45, 4.15, 4.82, 4.82, 4.4, 2.2, 0.73, 1.33, 1.49, 1.83, 1.83, 1.83, 3.63, 3.63, 3.63, 3.63, 4.11, 4.11, 3.49, 3.22, 3.22, 3.22, 2.4, 2.4, 2.4, 1.3, 1.3, 1.3, 0.0, 0.0, 0.0, 0.0, 0.0, -1.41, -1.41, -1.41, -1.41, -2.6, -2.16, -2.16, -2.16, -2.99, -2.76, -2.76, -2.76, -3.35, -3.35, -3.35, -3.35, -3.35, -3.79, -3.79, -3.79, -3.79, -3.79, -3.79, -3.79, -3.79, -3.79, -3.79, -4.19, -4.19, -4.19, -4.19, -3.84, -2.84, -2.53, -2.53, -2.53, -2.84, -2.84, -2.84, -2.23, -2.51, -2.51, -3.47, -2.84, -0.0, -0.0, -0.0, -0.0, -0.0, 0.0, -1.79, -2.68, -3.82, -2.98, -1.74, -0.59, 0.0, 1.91, 7.03, 11.25, 12.02, 9.79, 7.76, 11.2, 7.27, 6.01, 3.16, 3.16, 3.16, 2.98, 1.13, 1.33, 1.33, 1.49, 1.55, 1.55, 1.55, 3.63, 3.63, 3.63, 3.63, 3.63, 2.99, 3.49, 3.22, 3.22, 2.4, 2.4, 2.4, 1.3, 1.3, 1.3, 0.0, 0.0, 0.0, 0.0, 0.0, 0.0, -1.41, -1.41, -1.41, -2.6, -2.6, -2.6, -2.16, -2.99, -2.99, -2.76, -2.76, -3.35, -3.35, -3.35, -3.35, -3.35, -3.79, -3.79, -3.79, -3.79, -4.11, -4.12, -4.12, -3.79, -3.79, -3.79, -3.79, -4.19, -4.19, -4.19, -4.19, -3.84, -3.49, -2.84, -2.53, -2.84, -2.84, -2.84, -2.84, -2.53, -2.23, -2.23, -3.22, -3.58, -0.0, -0.0, -0.0, -0.0, -0.0, -1.34, -1.79, -2.24, -2.8, -1.4, 0.0, 0.0, 0.0, 1.84, 6.04, 9.8, 10.57, 8.58, 7.57, 9.48, 7.9, 3.82, 2.3, 1.84, 2.73, 2.48, 2.15, 1.84, 1.33, 1.49, 1.98, 1.98, 1.98, 3.63, 3.63, 3.63, 3.63, 2.99, 2.99, 2.99, 2.76, 3.22, 2.4, 2.4, 2.4, 1.3, 1.3, 1.3, 0.0, 0.0, 0.0, 0.0, 0.0, -1.41, -1.41, -1.41, -1.41, -2.6, -2.6, -2.6, -2.16, -2.99, -2.99, -2.99, -2.76, -3.35, -3.35, -3.35, -3.35, -3.79, -3.79, -3.79, -3.79, -3.79, -4.46, -4.12, -4.12, -4.12, -4.12, -3.79, -3.79, -3.79, -4.19, -4.19, -4.19, -3.84, -3.84, -2.84, -2.84, -2.84, -2.84, -2.84, -2.84, -2.84, -2.23, -2.23, -2.53, -3.47, -2.53, -0.0, -0.0, -0.0, -1.6, -2.24, -1.79, -1.79, -2.24, 0.0, 0.0, 0.0, 0.0, 3.0, 5.49, 7.47, 7.73, 8.0, 8.74, 10.43, 3.53, -0.0, 0.66, 1.8, 2.53, 2.41, 2.84, 2.15, 2.15, 1.83, 1.55, 1.55, 1.55, 3.63, 3.63, 3.63, 3.63, 2.99, 2.99, 2.99, 2.76, 1.99, 2.4, 2.4, 1.3, 1.3, 1.3, 0.0, 0.0, 0.0, 0.0, 0.0, 0.0, 0.0, -1.41, -1.41, -2.6, -2.6, -2.6, -2.6, -2.99, -2.99, -2.99, -2.99, -3.35, -3.35, -3.35, -3.35, -3.79, -3.79, -3.79, -3.79, -3.79, -4.12, -4.46, -4.46, -4.12, -4.12, -4.12, -4.12, -4.12, -4.12, -4.19, -4.19, -4.19, -3.84, -3.49, -3.14, -2.84, -2.84, -2.84, -2.84, -2.84, -2.84, -2.53, -2.53, -2.23, -2.5, -3.58, 0.0, 2.53, -0.0, -0.8, -0.95, -1.6, -0.95, -0.6, -0.0, -0.0, 0.0, 2.53, 4.98, 5.58, 5.37, 6.2, 9.39, 10.97, 11.1, -0.0, -2.16, 0.79, 2.73, 3.48, 3.83, 3.6, 3.2, 3.16, 2.2, 1.66, 1.66, 1.66, 3.63, 3.63, 3.63, 2.99, 2.99, 2.99, 2.99, 1.99, 1.99, 1.99, 2.4, 1.3, 1.3, 1.3, 0.0, 0.0, 0.0, 0.0, 0.0, 0.0, -1.41, -1.41, -1.41, -2.6, -2.6, -2.6, -2.6, -2.99, -2.99, -2.99, -2.99, -3.63, -3.35, -3.35, -3.35, -3.79, -3.79, -3.79, -3.79, -3.79, -4.12, -4.12, -4.12, -4.12, -4.12, -4.12, -4.12, -4.12, -4.12, -4.12, -4.46, -4.19, -3.84, -3.49, -3.49, -3.14, -3.14, -2.84, -2.84, -3.45, -2.84, -2.53, -2.53, -2.53, -1.88, -1.26, 0.0, 1.0, 0.71, -0.0, -0.0, -1.26, -1.26, -0.8, -0.8, -0.0, 1.26, 2.24, 3.47, 4.6, 4.89, 5.69, 9.17, 10.36, 8.73, 3.39, 4.92, 3.93, 2.07, 3.16, 3.82, 3.51, 3.9, 3.35, 2.23, 0.88, 0.88, 0.88, 3.63, 3.63, 3.63, 2.99, 2.99, 2.99, 2.99, 1.99, 1.99, 1.99, 1.05, 1.05, 1.3, 0.0, 0.0, 0.0, 0.0, 0.0, 0.0, -1.3, -1.41, -1.41, -2.6, -2.6, -2.6, -2.6, -3.49, -3.49, -2.99, -2.99, -2.99, -3.63, -3.35, -3.35, -3.35, -3.79, -3.79, -3.79, -3.79, -4.12, -4.12, -4.12, -4.12, -4.12, -4.12, -4.12, -4.12, -4.12, -4.12, -4.46, -4.46, -4.09, -4.09, -3.49, -3.49, -3.49, -3.14, -3.14, -3.14, -3.45, -3.45, -2.86, -2.53, -2.53, -2.21, -2.0, -1.34, -0.0, -0.0, -0.0, -0.0, 0.0, 0.0, -0.8, -0.8, -0.0, -0.0, 1.6, 2.68, 3.32, 4.6, 5.2, 5.95, 6.3, 4.55, 4.96, 4.41, 5.81, -0.0, 0.51, 2.8, 2.24, 2.68, 3.39, 3.48, 2.8, 2.8, 2.8, 3.63, 3.63, 3.63, 2.99, 2.99, 2.99, 2.99, 2.16, 1.99, 1.99, 1.05, 1.05, 1.05, 0.0, 0.0, 0.0, 0.0, 0.0, 0.0, -1.3, -1.41, -1.41, -2.6, -2.6, -2.6, -2.6, -3.49, -3.49, -2.99, -2.99, -3.63, -3.63, -3.35, -3.35, -3.79, -3.79, -3.79, -3.79, -3.79, -4.12, -4.12, -4.12, -4.12, -4.12, -4.12, -4.12, -4.12, -4.12, -4.12, -4.46, -4.46, -4.09, -4.09, -3.49, -3.49, -3.49, -3.49, -3.14, -3.14, -3.14, -3.45, -3.07, -2.86, -2.86, -2.53, -3.39, -1.79, -1.7, -1.6, -1.2, -0.95, 0.0, 0.0, 0.0, -0.0, -0.0, -0.0, 1.26, 2.24, 2.68, 3.2, 3.83, 3.84, 3.6, 0.0, 7.59, 4.47, 4.92, -4.56, -2.29, -0.0, 3.58, 3.58, 4.92, 4.43, 2.6, 2.6, 2.6, 3.63, 3.63, 3.63, 2.99, 2.99, 2.99, 2.16, 2.16, 2.16, 1.99, 1.05, 1.05, 1.05, 0.0, 0.0, 0.0, 0.0, 0.0, -1.3, -1.3, -1.41, -1.41, -2.6, -2.6, -2.6, -3.49, -3.49, -3.49, -2.99, -2.99, -3.63, -3.63, -3.35, -3.35, -3.79, -3.79, -3.79, -4.19, -4.46, -4.12, -4.12, -4.12, -4.12, -4.12, -4.37, -4.37, -4.37, -4.37, -4.12, -4.46, -4.46, -4.09, -4.09, -3.72, -3.72, -3.49, -3.49, -3.49, -3.14, -3.14, -3.45, -3.07, -2.86, -2.86, -2.86, -3.47, -2.24, -2.6, -2.6, -2.0, -1.49, -1.2, -0.95, -0.8, 0.0, -0.95, -0.0, 1.34, 2.24, 2.68, 2.54, 3.2, 3.48, 0.0, 0.0, 12.71, 4.92, 4.02, -1.52, -3.2, -2.2, -3.16, 0.0, 4.47, 4.11, 2.8, 2.8, 2.8, 3.22, 3.22, 3.22, 2.6, 2.6, 2.99, 2.16, 2.16, 2.16, 1.14, 1.14, 1.05, 0.0, 0.0, 0.0, 0.0, 0.0, 0.0, -1.3, -1.3, -1.3, -2.6, -2.6, -2.6, -2.6, -3.49, -3.49, -3.49, -2.99, -3.63, -3.63, -3.63, -3.63, -3.79, -3.79, -3.79, -3.79, -4.19, -4.46, -4.12, -4.12, -4.12, -4.12, -4.37, -4.37, -4.37, -4.37, -4.37, -4.37, -4.37, -4.46, -4.09, -4.09, -3.72, -3.72, -3.72, -3.72, -3.49, -3.14, -3.14, -3.14, -2.79, -2.79, -2.53, -3.22, -3.74, -3.97, -4.02, -3.07, -2.4, -1.7, -1.7, -1.79, -1.79, -1.79, -1.34, 0.0, 1.34, 2.24, 2.24, 2.24, 2.54, 3.8, 1.9, 3.58, 12.52, 5.81, 3.58, 1.19, -3.2, -3.11, -3.72, -3.58, -0.0, 3.72, 3.2, 3.2, 3.2, 3.22, 3.22, 3.22, 2.6, 2.6, 2.6, 1.84, 1.84, 2.16, 1.14, 1.14, 1.14, 0.0, 0.0, 0.0, 0.0, 0.0, -1.05, -1.05, -1.05, -1.05, -2.4, -2.6, -2.6, -2.6, -3.49, -3.49, -3.49, -2.99, -3.63, -3.63, -3.63, -3.63, -3.79, -3.79, -3.79, -3.79, -4.12, -4.46, -4.46, -4.12, -4.12, -4.37, -4.37, -4.37, -4.37, -4.37, -4.37, -4.37, -4.37, -4.27, -4.27, -4.09, -4.09, -3.72, -3.72, -3.72, -3.72, -3.49, -3.14, -3.14, -3.14, -2.79, -2.79, -3.14, -3.45, -3.82, -4.02, -2.4, -1.86, -1.6, -1.2, -1.7, -2.12, -1.6, -1.2, -0.0, -0.0, 1.79, 1.79, 1.79, 1.79, 3.45, 4.15, 0.0, 10.28, 3.13, 3.58, 3.72, -1.96, -4.16, -4.22, -4.02, -0.0, 2.4, 1.84, 1.84, 1.84, 3.22, 3.22, 2.6, 2.6, 2.6, 2.6, 1.84, 1.84, 1.84, 0.96, 1.14, 1.14, 0.0, 0.0, 0.0, 0.0, 0.0, -1.05, -1.05, -1.05, -1.05, -1.99, -1.99, -1.99, -2.4, -3.22, -3.22, -2.99, -2.99, -3.63, -3.63, -3.63, -3.63, -3.79, -3.79, -3.79, -3.79, -4.12, -4.46, -4.46, -4.12, -4.12, -4.37, -4.37, -4.37, -4.37, -4.37, -4.37, -4.37, -4.37, -4.27, -4.27, -4.27, -4.09, -3.72, -3.72, -3.72, -3.72, -3.72, -3.35, -3.14, -3.14, -3.14, -3.14, -3.14, -3.49, -3.6, -4.02, -3.39, -1.24, -0.57, -0.57, -0.99, -1.24, -0.6, 0.0, 0.0, -0.0, -0.0, 0.0, 0.0, 1.26, 1.13, 0.0, -4.8, 0.0, 3.13, 4.02, 4.02, -0.0, -4.87, -5.24, -5.37, -5.06, -0.0, -0.0, -0.0, -0.0, 3.22, 3.22, 2.6, 2.6, 2.6, 1.84, 1.84, 1.84, 1.84, 0.96, 0.96, 1.14, 0.0, 0.0, 0.0, 0.0, 0.0, -1.05, -1.05, -1.05, -1.99, -1.99, -1.99, -1.99, -2.76, -2.76, -2.76, -2.76, -2.99, -3.63, -3.63, -3.63, -4.11, -3.79, -3.79, -3.79, -4.12, -4.12, -4.46, -4.46, -4.12, -4.12, -4.37, -4.37, -4.37, -4.37, -4.37, -4.37, -4.37, -4.37, -4.37, -4.27, -4.27, -4.27, -4.27, -3.72, -3.72, -4.0, -3.72, -3.72, -3.35, -3.14, -3.14, -3.14, -3.16, -3.43, -3.72, -3.97, -3.32, -1.24, -0.57, -0.57, -1.24, -0.71, -0.6, 0.0, 0.0, -0.0, -0.0, -0.0, -1.79, -2.24, -1.4, -1.52, -4.4, -10.0, 5.36, 3.58, 3.58, 2.84, -4.02, -5.03, -6.01, -7.21, -6.01, -0.0, -0.0, -0.0, 3.47, 3.47, 2.6, 2.6, 2.6, 1.84, 1.84, 1.84, 0.96, 0.96, 0.96, 0.0, 0.0, 0.0, 0.0, 0.0, 0.0, -1.05, -1.05, -1.05, -1.99, -1.99, -1.99, -1.99, -2.76, -2.76, -2.76, -2.76, -2.76, -3.63, -3.63, -3.63, -4.11, -4.11, -3.79, -3.79, -4.12, -4.12, -4.12, -4.46, -4.12, -4.37, -4.37, -4.37, -4.37, -4.37, -4.37, -4.37, -4.37, -4.37, -4.37, -4.27, -4.27, -4.27, -4.27, -3.88, -3.88, -4.0, -4.0, -4.0, -3.72, -3.35, -3.35, -3.35, -3.43, -3.43, -3.78, -3.97, -3.32, -1.24, -1.24, -1.24, -0.99, -0.8, -0.6, -0.95, -1.34, -1.34, -1.79, -1.58, -1.58, -2.68, -2.21, -2.32, -3.25, -7.24, -7.59, 6.26, 4.02, 0.0, -4.47, -5.06, -6.9, -7.89, -7.44, -0.0, -0.0, -0.0, 3.47, 3.47, 2.8, 2.8, 2.8, 1.98, 1.98, 1.98, 0.96, 0.96, 0.96, 0.0, 0.0, 0.0, 0.0, 0.0, 0.0, -1.05, -1.05, -1.05, -1.99, -1.99, -1.99, -1.99, -2.76, -2.76, -2.76, -2.76, -2.76, -3.35, -3.35, -3.63, -4.11, -4.11, -3.79, -3.79, -4.12, -4.12, -4.12, -4.12, -4.37, -4.37, -4.37, -4.37, -4.37, -4.37, -4.37, -4.37, -4.37, -4.37, -4.37, -4.27, -4.27, -4.27, -4.27, -4.27, -3.88, -4.11, -4.11, -4.0, -4.0, -3.72, -3.35, -3.72, -3.43, -3.43, -3.78, -4.0, -3.58, -2.5, -2.53, -1.58, -1.26, -0.8, -0.95, -0.95, -0.95, -0.63, 0.0, -1.58, -1.9, -2.68, -2.98, -3.45, -2.82, -5.8, -8.85, -6.95, 0.0, 0.0, -1.13, -4.0, -7.81, -8.33, -8.24, -0.0, -0.0, -0.0, 2.8, 2.8, 2.8, 2.8, 1.98, 1.98, 1.98, 1.98, 1.03, 1.03, 0.96, 0.0, 0.0, 0.0, 0.0, 0.0, 0.0, -0.88, -0.88, -1.05, -1.99, -1.99, -1.99, -1.99, -2.76, -2.76, -2.76, -2.76, -3.35, -3.35, -3.35, -3.35, -4.11, -3.79, -3.79, -3.79, -4.12, -4.12, -4.12, -4.12, -4.37, -4.37, -4.37, -4.73, -4.73, -4.73, -4.37, -4.37, -4.37, -4.37, -4.37, -4.27, -4.27, -4.27, -4.27, -4.27, -4.27, -4.11, -4.11, -4.11, -4.11, -4.0, -3.72, -3.72, -3.43, -3.43, -3.78, -3.43, -3.97, -3.04, -2.21, -1.58, -1.26, -0.0, -0.0, -0.6, -0.6, -0.0, 0.0, -2.24, -2.4, -3.13, -3.2, -3.91, -2.82, -3.68, -6.0, -7.9, -4.96, -3.6, -1.8, -1.98, -6.79, -8.05, -7.6, -4.74, -4.74, -4.74, 2.8, 2.8, 2.8, 2.8, 1.98, 1.98, 1.98, 1.03, 1.03, 1.03, 0.0, 0.0, 0.0, 0.0, 0.0, 0.0, 0.0, -0.88, -0.88, -0.88, -1.7, -1.99, -1.99, -1.99, -2.76, -2.76, -2.76, -2.76, -3.35, -3.35, -3.35, -3.35, -3.79, -3.79, -3.79, -4.12, -4.12, -4.12, -4.12, -4.37, -4.37, -4.37, -4.73, -4.73, -4.73, -4.73, -4.93, -4.55, -4.55, -4.55, -4.37, -4.66, -4.27, -4.27, -4.27, -4.27, -4.27, -4.11, -4.11, -4.11, -4.11, -4.11, -3.88, -3.72, -3.72, -3.43, -3.43, -3.43, -3.72, -3.13, -2.4, -1.9, -0.85, -0.0, -0.0, -0.0, -0.6, -0.0, -0.0, -1.79, -2.68, -3.13, -3.6, -4.43, -4.2, -2.93, -3.68, -5.6, -5.52, -5.06, -2.99, -2.2, -3.16, -4.74, -3.76, -1.41, -1.41, -1.41, 2.8, 2.8, 2.8, 2.8, 1.98, 1.98, 1.98, 1.03, 1.03, 1.03, 0.0, 0.0, 0.0, 0.0, 0.0, 0.0, 0.0, -0.88, -0.88, -0.88, -1.7, -1.99, -1.99, -1.99, -2.76, -2.76, -2.76, -2.76, -3.35, -3.35, -3.35, -3.35, -3.79, -3.79, -3.79, -4.12, -4.12, -4.12, -4.12, -4.37, -4.37, -4.37, -4.73, -4.73, -4.73, -4.73, -4.93, -4.55, -4.55, -4.55, -4.37, -4.66, -4.27, -4.27, -4.27, -4.27, -4.27, -4.11, -4.11, -4.11, -4.11, -4.11, -3.88, -3.72, -3.72, -3.43, -3.43, -3.43, -3.72, -3.13, -2.4, -1.9, -0.85, -0.0, -0.0, -0.0, -0.0, -0.0, -0.0, -1.79, -2.68, -3.13, -3.74, -4.89, -4.71, -2.95, -3.04, -1.61, -1.77, -1.71, -1.71, -1.69, -1.18, -1.32, -2.16, -0.81, -0.81, -0.81]}]